Wetterdaten: Donnerstag, 14.07.2022
Datum Zeit Temp. Aussen Temp. o. S. Temp +5cm Feuchte Auss Luftdruck Regen Sonnenschein Regendauer Solar Windben Empfang
14.07.2022 00:00 20,7 C 19,4 C 16,1 C 76 % 1020,8 hPa 0,0 l/m 0 min 0 min 0 W/m 9,7 km/h (2 Bft) 97,87 %
14.07.2022 00:02 20,7 C 19,4 C 16,1 C 76 % 1020,8 hPa 0,0 l/m 0 min 0 min 0 W/m 6,4 km/h (2 Bft) 95,00 %
14.07.2022 00:04 20,6 C 19,4 C 16,1 C 76 % 1020,8 hPa 0,0 l/m 0 min 0 min 0 W/m 3,2 km/h (1 Bft) 97,87 %
14.07.2022 00:08 20,5 C 19,4 C 16,1 C 77 % 1020,9 hPa 0,0 l/m 0 min 0 min 0 W/m 12,9 km/h (3 Bft) 97,85 %
14.07.2022 00:10 20,4 C 19,4 C 16,1 C 76 % 1020,9 hPa 0,0 l/m 0 min 0 min 0 W/m 12,9 km/h (3 Bft) 95,74 %
14.07.2022 00:12 20,4 C 19,4 C 16,1 C 77 % 1020,9 hPa 0,0 l/m 0 min 0 min 0 W/m 3,2 km/h (1 Bft) 97,87 %
14.07.2022 00:14 20,4 C 19,4 C 16,1 C 77 % 1020,9 hPa 0,0 l/m 0 min 0 min 0 W/m 12,9 km/h (3 Bft) 97,87 %
14.07.2022 00:16 20,4 C 19,4 C 16,1 C 77 % 1020,9 hPa 0,0 l/m 0 min 0 min 0 W/m 16,1 km/h (3 Bft) 97,87 %
14.07.2022 00:18 20,3 C 19,4 C 16,1 C 78 % 1020,9 hPa 0,0 l/m 0 min 0 min 0 W/m 12,9 km/h (3 Bft) 97,83 %
14.07.2022 00:20 20,3 C 19,4 C 16,1 C 78 % 1020,9 hPa 0,0 l/m 0 min 0 min 0 W/m 16,1 km/h (3 Bft) 100,00 %
14.07.2022 00:24 20,2 C 18,9 C 16,1 C 78 % 1020,9 hPa 0,0 l/m 0 min 0 min 0 W/m 3,2 km/h (1 Bft) 100,00 %
14.07.2022 00:26 20,2 C 18,9 C 15,6 C 78 % 1021,0 hPa 0,0 l/m 0 min 0 min 0 W/m 9,7 km/h (2 Bft) 97,14 %
14.07.2022 00:28 20,1 C 18,9 C 15,6 C 79 % 1020,9 hPa 0,0 l/m 0 min 0 min 0 W/m 12,9 km/h (3 Bft) 97,87 %
14.07.2022 00:30 20,1 C 18,9 C 15,6 C 79 % 1020,9 hPa 0,0 l/m 0 min 0 min 0 W/m 12,9 km/h (3 Bft) 100,00 %
14.07.2022 00:32 20,0 C 18,9 C 15,6 C 79 % 1020,9 hPa 0,0 l/m 0 min 0 min 0 W/m 9,7 km/h (2 Bft) 100,00 %
14.07.2022 00:34 19,9 C 18,9 C 15,6 C 79 % 1020,9 hPa 0,0 l/m 0 min 0 min 0 W/m 12,9 km/h (3 Bft) 100,00 %
14.07.2022 00:36 19,9 C 18,9 C 15,6 C 79 % 1021,0 hPa 0,0 l/m 0 min 0 min 0 W/m 16,1 km/h (3 Bft) 100,00 %
14.07.2022 00:38 19,9 C 18,9 C 15,6 C 79 % 1020,9 hPa 0,0 l/m 0 min 0 min 0 W/m 16,1 km/h (3 Bft) 100,00 %
14.07.2022 00:40 19,8 C 18,9 C 15,6 C 79 % 1020,8 hPa 0,0 l/m 0 min 0 min 0 W/m 9,7 km/h (2 Bft) 100,00 %
14.07.2022 00:42 19,7 C 18,9 C 15,0 C 80 % 1020,8 hPa 0,0 l/m 0 min 0 min 0 W/m 19,3 km/h (3 Bft) 100,00 %
14.07.2022 00:44 19,7 C 18,9 C 15,6 C 80 % 1020,8 hPa 0,0 l/m 0 min 0 min 0 W/m 12,9 km/h (3 Bft) 100,00 %
14.07.2022 00:46 19,6 C 18,9 C 15,6 C 81 % 1020,8 hPa 0,0 l/m 0 min 0 min 0 W/m 19,3 km/h (3 Bft) 97,87 %
14.07.2022 00:48 19,6 C 18,9 C 15,0 C 81 % 1021,0 hPa 0,0 l/m 0 min 0 min 0 W/m 16,1 km/h (3 Bft) 100,00 %
14.07.2022 00:50 19,6 C 18,9 C 15,0 C 81 % 1021,0 hPa 0,0 l/m 0 min 0 min 0 W/m 9,7 km/h (2 Bft) 100,00 %
14.07.2022 00:52 19,6 C 18,9 C 15,0 C 81 % 1020,9 hPa 0,0 l/m 0 min 0 min 0 W/m 6,4 km/h (2 Bft) 100,00 %
14.07.2022 00:54 19,5 C 18,9 C 15,0 C 81 % 1020,9 hPa 0,0 l/m 0 min 0 min 0 W/m 12,9 km/h (3 Bft) 100,00 %
14.07.2022 00:56 19,4 C 18,3 C 15,0 C 81 % 1020,9 hPa 0,0 l/m 0 min 0 min 0 W/m 12,9 km/h (3 Bft) 100,00 %
14.07.2022 00:58 19,4 C 18,3 C 15,0 C 81 % 1020,8 hPa 0,0 l/m 0 min 0 min 0 W/m 9,7 km/h (2 Bft) 100,00 %
14.07.2022 01:00 19,4 C 18,3 C 15,0 C 81 % 1020,8 hPa 0,0 l/m 0 min 0 min 0 W/m 12,9 km/h (3 Bft) 100,00 %
14.07.2022 01:02 19,3 C 18,3 C 15,0 C 81 % 1020,8 hPa 0,0 l/m 0 min 0 min 0 W/m 9,7 km/h (2 Bft) 100,00 %
14.07.2022 01:04 19,3 C 18,3 C 15,0 C 81 % 1020,8 hPa 0,0 l/m 0 min 0 min 0 W/m 12,9 km/h (3 Bft) 100,00 %
14.07.2022 01:06 19,2 C 18,3 C 15,0 C 82 % 1020,8 hPa 0,0 l/m 0 min 0 min 0 W/m 9,7 km/h (2 Bft) 100,00 %
14.07.2022 01:08 19,2 C 18,3 C 15,0 C 82 % 1020,8 hPa 0,0 l/m 0 min 0 min 0 W/m 12,9 km/h (3 Bft) 100,00 %
14.07.2022 01:10 19,2 C 18,3 C 15,0 C 82 % 1020,8 hPa 0,0 l/m 0 min 0 min 0 W/m 6,4 km/h (2 Bft) 100,00 %
14.07.2022 01:12 19,1 C 18,3 C 15,0 C 82 % 1020,8 hPa 0,0 l/m 0 min 0 min 0 W/m 6,4 km/h (2 Bft) 97,87 %
14.07.2022 01:14 19,1 C 17,8 C 15,0 C 82 % 1020,8 hPa 0,0 l/m 0 min 0 min 0 W/m 12,9 km/h (3 Bft) 100,00 %
14.07.2022 01:16 19,1 C 18,3 C 15,0 C 82 % 1020,8 hPa 0,0 l/m 0 min 0 min 0 W/m 6,4 km/h (2 Bft) 100,00 %
14.07.2022 01:18 19,0 C 17,8 C 14,4 C 83 % 1020,7 hPa 0,0 l/m 0 min 0 min 0 W/m 6,4 km/h (2 Bft) 100,00 %
14.07.2022 01:20 18,9 C 17,8 C 14,4 C 83 % 1020,8 hPa 0,0 l/m 0 min 0 min 0 W/m 9,7 km/h (2 Bft) 100,00 %
14.07.2022 01:22 18,9 C 17,8 C 14,4 C 83 % 1020,8 hPa 0,0 l/m 0 min 0 min 0 W/m 6,4 km/h (2 Bft) 100,00 %
14.07.2022 01:24 18,9 C 17,8 C 14,4 C 83 % 1020,8 hPa 0,0 l/m 0 min 0 min 0 W/m 6,4 km/h (2 Bft) 100,00 %
14.07.2022 01:26 18,9 C 17,8 C 14,4 C 83 % 1020,7 hPa 0,0 l/m 0 min 0 min 0 W/m 3,2 km/h (1 Bft) 100,00 %
14.07.2022 01:28 18,8 C 17,8 C 14,4 C 83 % 1020,7 hPa 0,0 l/m 0 min 0 min 0 W/m 6,4 km/h (2 Bft) 97,87 %
14.07.2022 01:30 18,8 C 17,8 C 14,4 C 83 % 1020,7 hPa 0,0 l/m 0 min 0 min 0 W/m 6,4 km/h (2 Bft) 100,00 %
14.07.2022 01:32 18,8 C 17,8 C 14,4 C 84 % 1020,7 hPa 0,0 l/m 0 min 0 min 0 W/m 12,9 km/h (3 Bft) 100,00 %
14.07.2022 01:34 18,8 C 17,8 C 14,4 C 83 % 1020,7 hPa 0,0 l/m 0 min 0 min 0 W/m 6,4 km/h (2 Bft) 93,62 %
14.07.2022 01:36 18,7 C 17,8 C 14,4 C 84 % 1020,6 hPa 0,0 l/m 0 min 0 min 0 W/m 6,4 km/h (2 Bft) 97,87 %
14.07.2022 01:38 18,7 C 17,8 C 14,4 C 84 % 1020,6 hPa 0,0 l/m 0 min 0 min 0 W/m 9,7 km/h (2 Bft) 95,74 %
14.07.2022 01:40 18,7 C 17,8 C 14,4 C 84 % 1020,6 hPa 0,0 l/m 0 min 0 min 0 W/m 3,2 km/h (1 Bft) 93,62 %
14.07.2022 01:42 18,7 C 17,8 C 14,4 C 84 % 1020,6 hPa 0,0 l/m 0 min 0 min 0 W/m 3,2 km/h (1 Bft) 93,48 %
14.07.2022 01:44 18,6 C 17,8 C 14,4 C 84 % 1020,6 hPa 0,0 l/m 0 min 0 min 0 W/m 6,4 km/h (2 Bft) 93,62 %
14.07.2022 01:46 18,6 C 17,8 C 14,4 C 84 % 1020,6 hPa 0,0 l/m 0 min 0 min 0 W/m 12,9 km/h (3 Bft) 95,74 %
14.07.2022 01:48 18,6 C 17,8 C 14,4 C 84 % 1020,6 hPa 0,0 l/m 0 min 0 min 0 W/m 9,7 km/h (2 Bft) 93,62 %
14.07.2022 01:50 18,6 C 17,8 C 14,4 C 84 % 1020,6 hPa 0,0 l/m 0 min 0 min 0 W/m 9,7 km/h (2 Bft) 95,74 %
14.07.2022 01:52 18,6 C 17,8 C 14,4 C 84 % 1020,7 hPa 0,0 l/m 0 min 0 min 0 W/m 16,1 km/h (3 Bft) 95,74 %
14.07.2022 01:54 18,5 C 17,8 C 14,4 C 84 % 1020,7 hPa 0,0 l/m 0 min 0 min 0 W/m 12,9 km/h (3 Bft) 93,62 %
14.07.2022 01:56 18,5 C 17,8 C 14,4 C 84 % 1020,7 hPa 0,0 l/m 0 min 0 min 0 W/m 9,7 km/h (2 Bft) 89,13 %
14.07.2022 01:58 18,4 C 17,8 C 14,4 C 84 % 1020,7 hPa 0,0 l/m 0 min 0 min 0 W/m 6,4 km/h (2 Bft) 93,62 %
14.07.2022 02:00 18,4 C 17,8 C 14,4 C 85 % 1020,6 hPa 0,0 l/m 0 min 0 min 0 W/m 9,7 km/h (2 Bft) 91,49 %
14.07.2022 02:02 18,4 C 17,8 C 14,4 C 85 % 1020,6 hPa 0,0 l/m 0 min 0 min 0 W/m 3,2 km/h (1 Bft) 91,49 %
14.07.2022 02:04 18,4 C 17,2 C 14,4 C 85 % 1020,6 hPa 0,0 l/m 0 min 0 min 0 W/m 6,4 km/h (2 Bft) 93,62 %
14.07.2022 02:06 18,4 C 17,2 C 14,4 C 85 % 1020,7 hPa 0,0 l/m 0 min 0 min 0 W/m 9,7 km/h (2 Bft) 91,30 %
14.07.2022 02:08 18,3 C 17,2 C 14,4 C 85 % 1020,7 hPa 0,0 l/m 0 min 0 min 0 W/m 12,9 km/h (3 Bft) 91,49 %
14.07.2022 02:10 18,3 C 17,2 C 14,4 C 85 % 1020,8 hPa 0,0 l/m 0 min 0 min 0 W/m 16,1 km/h (3 Bft) 91,49 %
14.07.2022 02:12 18,3 C 17,2 C 13,9 C 85 % 1020,8 hPa 0,0 l/m 0 min 0 min 0 W/m 12,9 km/h (3 Bft) 93,62 %
14.07.2022 02:14 18,3 C 17,2 C 13,9 C 85 % 1020,8 hPa 0,0 l/m 0 min 0 min 0 W/m 12,9 km/h (3 Bft) 93,62 %
14.07.2022 02:16 18,3 C 17,2 C 13,9 C 85 % 1020,8 hPa 0,0 l/m 0 min 0 min 0 W/m 3,2 km/h (1 Bft) 95,74 %
14.07.2022 02:18 18,2 C 17,2 C 13,9 C 85 % 1020,7 hPa 0,0 l/m 0 min 0 min 0 W/m 6,4 km/h (2 Bft) 97,83 %
14.07.2022 02:20 18,2 C 17,2 C 13,9 C 85 % 1020,7 hPa 0,0 l/m 0 min 0 min 0 W/m 3,2 km/h (1 Bft) 93,62 %
14.07.2022 02:22 18,2 C 17,2 C 13,9 C 85 % 1020,7 hPa 0,0 l/m 0 min 0 min 0 W/m 12,9 km/h (3 Bft) 97,87 %
14.07.2022 02:24 18,2 C 17,2 C 13,9 C 85 % 1020,7 hPa 0,0 l/m 0 min 0 min 0 W/m 9,7 km/h (2 Bft) 95,74 %
14.07.2022 02:26 18,2 C 17,2 C 13,9 C 85 % 1020,6 hPa 0,0 l/m 0 min 0 min 0 W/m 3,2 km/h (1 Bft) 95,74 %
14.07.2022 02:28 18,1 C 17,2 C 13,9 C 85 % 1020,7 hPa 0,0 l/m 0 min 0 min 0 W/m 6,4 km/h (2 Bft) 95,74 %
14.07.2022 02:30 18,1 C 17,2 C 13,9 C 85 % 1020,7 hPa 0,0 l/m 0 min 0 min 0 W/m 9,7 km/h (2 Bft) 97,87 %
14.07.2022 02:32 18,1 C 17,2 C 13,9 C 85 % 1020,7 hPa 0,0 l/m 0 min 0 min 0 W/m 6,4 km/h (2 Bft) 95,65 %
14.07.2022 02:34 18,1 C 17,2 C 13,9 C 85 % 1020,7 hPa 0,0 l/m 0 min 0 min 0 W/m 3,2 km/h (1 Bft) 95,74 %
14.07.2022 02:36 18,0 C 17,2 C 13,9 C 85 % 1020,7 hPa 0,0 l/m 0 min 0 min 0 W/m 9,7 km/h (2 Bft) 97,87 %
14.07.2022 02:38 18,0 C 17,2 C 13,9 C 86 % 1020,7 hPa 0,0 l/m 0 min 0 min 0 W/m 3,2 km/h (1 Bft) 97,87 %
14.07.2022 02:40 18,0 C 17,2 C 13,9 C 86 % 1020,7 hPa 0,0 l/m 0 min 0 min 0 W/m 3,2 km/h (1 Bft) 97,87 %
14.07.2022 02:42 17,9 C 17,2 C 13,9 C 85 % 1020,6 hPa 0,0 l/m 0 min 0 min 0 W/m 9,7 km/h (2 Bft) 93,62 %
14.07.2022 02:44 17,9 C 16,7 C 13,9 C 85 % 1020,5 hPa 0,0 l/m 0 min 0 min 0 W/m 3,2 km/h (1 Bft) 97,83 %
14.07.2022 02:46 17,9 C 17,2 C 13,9 C 85 % 1020,5 hPa 0,0 l/m 0 min 0 min 0 W/m 6,4 km/h (2 Bft) 98,18 %
14.07.2022 02:48 17,9 C 17,2 C 13,9 C 86 % 1020,5 hPa 0,0 l/m 0 min 0 min 0 W/m 3,2 km/h (1 Bft) 94,74 %
14.07.2022 02:50 17,8 C 17,2 C 13,9 C 86 % 1020,5 hPa 0,0 l/m 0 min 0 min 0 W/m 3,2 km/h (1 Bft) 97,92 %
14.07.2022 02:52 17,8 C 17,2 C 13,9 C 86 % 1020,5 hPa 0,0 l/m 0 min 0 min 0 W/m 6,4 km/h (2 Bft) 97,87 %
14.07.2022 02:54 17,8 C 17,2 C 13,3 C 86 % 1020,5 hPa 0,0 l/m 0 min 0 min 0 W/m 3,2 km/h (1 Bft) 97,87 %
14.07.2022 02:56 17,8 C 17,2 C 13,9 C 86 % 1020,5 hPa 0,0 l/m 0 min 0 min 0 W/m 3,2 km/h (1 Bft) 97,83 %
14.07.2022 02:58 17,8 C 17,2 C 13,3 C 86 % 1020,5 hPa 0,0 l/m 0 min 0 min 0 W/m 3,2 km/h (1 Bft) 100,00 %
14.07.2022 03:00 17,7 C 16,7 C 13,3 C 86 % 1020,6 hPa 0,0 l/m 0 min 0 min 0 W/m 6,4 km/h (2 Bft) 100,00 %
14.07.2022 03:02 17,7 C 16,7 C 13,3 C 86 % 1020,6 hPa 0,0 l/m 0 min 0 min 0 W/m 0,0 km/h (0 Bft) 100,00 %
14.07.2022 03:04 17,7 C 16,7 C 13,3 C 86 % 1020,6 hPa 0,0 l/m 0 min 0 min 0 W/m 0,0 km/h (0 Bft) 100,00 %
14.07.2022 03:06 17,7 C 16,7 C 13,3 C 86 % 1020,5 hPa 0,0 l/m 0 min 0 min 0 W/m 3,2 km/h (1 Bft) 100,00 %
14.07.2022 03:08 17,7 C 16,7 C 13,3 C 86 % 1020,5 hPa 0,0 l/m 0 min 0 min 0 W/m 3,2 km/h (1 Bft) 100,00 %
14.07.2022 03:10 17,6 C 16,7 C 13,3 C 86 % 1020,5 hPa 0,0 l/m 0 min 0 min 0 W/m 3,2 km/h (1 Bft) 100,00 %
14.07.2022 03:12 17,6 C 16,7 C 13,3 C 86 % 1020,5 hPa 0,0 l/m 0 min 0 min 0 W/m 0,0 km/h (0 Bft) 100,00 %
14.07.2022 03:14 17,6 C 16,7 C 13,3 C 86 % 1020,5 hPa 0,0 l/m 0 min 0 min 0 W/m 3,2 km/h (1 Bft) 100,00 %
14.07.2022 03:16 17,5 C 16,7 C 13,3 C 86 % 1020,5 hPa 0,0 l/m 0 min 0 min 0 W/m 6,4 km/h (2 Bft) 100,00 %
14.07.2022 03:18 17,5 C 16,7 C 12,8 C 86 % 1020,5 hPa 0,0 l/m 0 min 0 min 0 W/m 3,2 km/h (1 Bft) 95,65 %
14.07.2022 03:20 17,4 C 16,7 C 13,3 C 86 % 1020,5 hPa 0,0 l/m 0 min 0 min 0 W/m 6,4 km/h (2 Bft) 100,00 %
14.07.2022 03:22 17,4 C 16,1 C 13,3 C 86 % 1020,6 hPa 0,0 l/m 0 min 0 min 0 W/m 9,7 km/h (2 Bft) 100,00 %
14.07.2022 03:24 17,4 C 16,1 C 13,3 C 87 % 1020,5 hPa 0,0 l/m 0 min 0 min 0 W/m 3,2 km/h (1 Bft) 100,00 %
14.07.2022 03:26 17,4 C 16,1 C 13,3 C 87 % 1020,5 hPa 0,0 l/m 0 min 0 min 0 W/m 6,4 km/h (2 Bft) 97,87 %
14.07.2022 03:28 17,4 C 16,1 C 13,3 C 87 % 1020,4 hPa 0,0 l/m 0 min 0 min 0 W/m 9,7 km/h (2 Bft) 100,00 %
14.07.2022 03:30 17,3 C 16,1 C 13,3 C 87 % 1020,5 hPa 0,0 l/m 0 min 0 min 0 W/m 6,4 km/h (2 Bft) 97,83 %
14.07.2022 03:32 17,3 C 16,1 C 13,3 C 87 % 1020,6 hPa 0,0 l/m 0 min 0 min 0 W/m 3,2 km/h (1 Bft) 97,87 %
14.07.2022 03:34 17,3 C 16,1 C 12,8 C 87 % 1020,6 hPa 0,0 l/m 0 min 0 min 0 W/m 3,2 km/h (1 Bft) 95,74 %
14.07.2022 03:36 17,2 C 16,1 C 13,3 C 87 % 1020,6 hPa 0,0 l/m 0 min 0 min 0 W/m 3,2 km/h (1 Bft) 97,87 %
14.07.2022 03:38 17,2 C 16,1 C 13,3 C 87 % 1020,7 hPa 0,0 l/m 0 min 0 min 0 W/m 6,4 km/h (2 Bft) 97,87 %
14.07.2022 03:40 17,2 C 16,1 C 12,8 C 87 % 1020,7 hPa 0,0 l/m 0 min 0 min 0 W/m 9,7 km/h (2 Bft) 97,87 %
14.07.2022 03:42 17,2 C 16,1 C 12,8 C 87 % 1020,8 hPa 0,0 l/m 0 min 0 min 0 W/m 3,2 km/h (1 Bft) 97,83 %
14.07.2022 03:44 17,2 C 16,1 C 12,8 C 87 % 1020,8 hPa 0,0 l/m 0 min 0 min 0 W/m 6,4 km/h (2 Bft) 95,74 %
14.07.2022 03:46 17,1 C 16,1 C 12,8 C 87 % 1020,7 hPa 0,0 l/m 0 min 0 min 0 W/m 6,4 km/h (2 Bft) 97,87 %
14.07.2022 03:48 17,1 C 16,1 C 12,8 C 87 % 1020,7 hPa 0,0 l/m 0 min 0 min 0 W/m 6,4 km/h (2 Bft) 97,87 %
14.07.2022 03:50 17,1 C 16,1 C 12,8 C 87 % 1020,8 hPa 0,0 l/m 0 min 0 min 0 W/m 6,4 km/h (2 Bft) 97,87 %
14.07.2022 03:52 17,1 C 16,1 C 12,8 C 88 % 1020,8 hPa 0,0 l/m 0 min 0 min 0 W/m 6,4 km/h (2 Bft) 97,87 %
14.07.2022 03:54 17,1 C 16,1 C 12,8 C 88 % 1020,8 hPa 0,0 l/m 0 min 0 min 0 W/m 6,4 km/h (2 Bft) 95,65 %
14.07.2022 03:56 17,1 C 16,1 C 12,8 C 88 % 1020,7 hPa 0,0 l/m 0 min 0 min 0 W/m 6,4 km/h (2 Bft) 97,87 %
14.07.2022 03:58 17,1 C 16,1 C 12,8 C 88 % 1020,6 hPa 0,0 l/m 0 min 0 min 0 W/m 3,2 km/h (1 Bft) 97,87 %
14.07.2022 04:00 17,0 C 16,1 C 12,8 C 88 % 1020,5 hPa 0,0 l/m 0 min 0 min 0 W/m 3,2 km/h (1 Bft) 100,00 %
14.07.2022 04:02 17,0 C 16,1 C 12,8 C 88 % 1020,4 hPa 0,0 l/m 0 min 0 min 0 W/m 6,4 km/h (2 Bft) 97,87 %
14.07.2022 04:04 17,0 C 16,1 C 12,8 C 88 % 1020,4 hPa 0,0 l/m 0 min 0 min 0 W/m 6,4 km/h (2 Bft) 100,00 %
14.07.2022 04:06 16,9 C 16,1 C 12,8 C 88 % 1020,4 hPa 0,0 l/m 0 min 0 min 0 W/m 9,7 km/h (2 Bft) 100,00 %
14.07.2022 04:08 16,9 C 16,1 C 12,8 C 88 % 1020,4 hPa 0,0 l/m 0 min 0 min 0 W/m 6,4 km/h (2 Bft) 100,00 %
14.07.2022 04:10 16,9 C 16,1 C 12,8 C 88 % 1020,4 hPa 0,0 l/m 0 min 0 min 0 W/m 3,2 km/h (1 Bft) 100,00 %
14.07.2022 04:12 16,9 C 16,1 C 12,8 C 88 % 1020,3 hPa 0,0 l/m 0 min 0 min 0 W/m 0,0 km/h (0 Bft) 100,00 %
14.07.2022 04:14 16,8 C 16,1 C 12,8 C 88 % 1020,4 hPa 0,0 l/m 0 min 0 min 0 W/m 3,2 km/h (1 Bft) 100,00 %
14.07.2022 04:16 16,9 C 16,1 C 12,8 C 89 % 1020,4 hPa 0,0 l/m 0 min 0 min 0 W/m 6,4 km/h (2 Bft) 97,87 %
14.07.2022 04:18 16,8 C 16,1 C 12,8 C 89 % 1020,4 hPa 0,0 l/m 0 min 0 min 0 W/m 3,2 km/h (1 Bft) 100,00 %
14.07.2022 04:20 16,9 C 16,1 C 12,8 C 89 % 1020,4 hPa 0,0 l/m 0 min 0 min 0 W/m 0,0 km/h (0 Bft) 97,87 %
14.07.2022 04:22 16,9 C 16,1 C 12,8 C 89 % 1020,4 hPa 0,0 l/m 0 min 0 min 0 W/m 3,2 km/h (1 Bft) 97,87 %
14.07.2022 04:24 16,8 C 16,1 C 12,8 C 88 % 1020,3 hPa 0,0 l/m 0 min 0 min 0 W/m 3,2 km/h (1 Bft) 97,87 %
14.07.2022 04:26 16,8 C 16,1 C 12,8 C 88 % 1020,3 hPa 0,0 l/m 0 min 0 min 0 W/m 6,4 km/h (2 Bft) 100,00 %
14.07.2022 04:28 16,8 C 16,1 C 12,8 C 88 % 1020,3 hPa 0,0 l/m 0 min 0 min 0 W/m 3,2 km/h (1 Bft) 100,00 %
14.07.2022 04:30 16,8 C 16,1 C 12,8 C 89 % 1020,3 hPa 0,0 l/m 0 min 0 min 0 W/m 6,4 km/h (2 Bft) 100,00 %
14.07.2022 04:32 16,8 C 16,1 C 12,8 C 89 % 1020,3 hPa 0,0 l/m 0 min 0 min 0 W/m 3,2 km/h (1 Bft) 100,00 %
14.07.2022 04:34 16,8 C 16,1 C 12,8 C 89 % 1020,3 hPa 0,0 l/m 0 min 0 min 0 W/m 6,4 km/h (2 Bft) 97,87 %
14.07.2022 04:36 16,8 C 16,1 C 12,8 C 89 % 1020,3 hPa 0,0 l/m 0 min 0 min 0 W/m 6,4 km/h (2 Bft) 100,00 %
14.07.2022 04:38 16,8 C 16,1 C 12,8 C 89 % 1020,3 hPa 0,0 l/m 0 min 0 min 0 W/m 6,4 km/h (2 Bft) 97,87 %
14.07.2022 04:40 16,8 C 16,1 C 12,8 C 89 % 1020,4 hPa 0,0 l/m 0 min 0 min 0 W/m 3,2 km/h (1 Bft) 95,74 %
14.07.2022 04:42 16,8 C 16,1 C 12,8 C 89 % 1020,4 hPa 0,0 l/m 0 min 0 min 0 W/m 6,4 km/h (2 Bft) 93,48 %
14.07.2022 04:44 16,8 C 16,1 C 12,8 C 89 % 1020,4 hPa 0,0 l/m 0 min 0 min 0 W/m 6,4 km/h (2 Bft) 95,74 %
14.07.2022 04:46 16,8 C 16,1 C 12,8 C 89 % 1020,5 hPa 0,0 l/m 0 min 0 min 0 W/m 6,4 km/h (2 Bft) 95,74 %
14.07.2022 04:48 16,8 C 16,1 C 12,8 C 89 % 1020,5 hPa 0,0 l/m 0 min 0 min 0 W/m 6,4 km/h (2 Bft) 95,74 %
14.07.2022 04:50 16,7 C 15,6 C 12,8 C 89 % 1020,5 hPa 0,0 l/m 0 min 0 min 0 W/m 6,4 km/h (2 Bft) 93,62 %
14.07.2022 04:52 16,7 C 15,6 C 12,8 C 89 % 1020,5 hPa 0,0 l/m 0 min 0 min 0 W/m 6,4 km/h (2 Bft) 95,74 %
14.07.2022 04:54 16,7 C 15,6 C 12,8 C 89 % 1020,5 hPa 0,0 l/m 0 min 0 min 0 W/m 3,2 km/h (1 Bft) 95,65 %
14.07.2022 04:56 16,7 C 15,6 C 12,8 C 89 % 1020,6 hPa 0,0 l/m 0 min 0 min 0 W/m 3,2 km/h (1 Bft) 93,62 %
14.07.2022 04:58 16,7 C 15,6 C 12,8 C 89 % 1020,6 hPa 0,0 l/m 0 min 0 min 0 W/m 6,4 km/h (2 Bft) 95,74 %
14.07.2022 05:00 16,6 C 15,6 C 12,8 C 89 % 1020,6 hPa 0,0 l/m 0 min 0 min 0 W/m 3,2 km/h (1 Bft) 97,87 %
14.07.2022 05:02 16,6 C 15,6 C 12,8 C 89 % 1020,5 hPa 0,0 l/m 0 min 0 min 0 W/m 3,2 km/h (1 Bft) 95,74 %
14.07.2022 05:04 16,6 C 15,6 C 12,8 C 89 % 1020,5 hPa 0,0 l/m 0 min 0 min 0 W/m 3,2 km/h (1 Bft) 93,62 %
14.07.2022 05:06 16,6 C 15,6 C 12,8 C 89 % 1020,5 hPa 0,0 l/m 0 min 0 min 0 W/m 9,7 km/h (2 Bft) 95,65 %
14.07.2022 05:08 16,6 C 15,6 C 12,8 C 89 % 1020,5 hPa 0,0 l/m 0 min 0 min 0 W/m 9,7 km/h (2 Bft) 93,62 %
14.07.2022 05:10 16,6 C 15,6 C 12,8 C 89 % 1020,6 hPa 0,0 l/m 0 min 0 min 0 W/m 3,2 km/h (1 Bft) 93,62 %
14.07.2022 05:12 16,6 C 15,6 C 12,8 C 89 % 1020,5 hPa 0,0 l/m 0 min 0 min 0 W/m 6,4 km/h (2 Bft) 95,74 %
14.07.2022 05:14 16,6 C 15,6 C 12,8 C 89 % 1020,4 hPa 0,0 l/m 0 min 0 min 0 W/m 3,2 km/h (1 Bft) 93,62 %
14.07.2022 05:16 16,6 C 15,6 C 12,8 C 89 % 1020,4 hPa 0,0 l/m 0 min 0 min 0 W/m 3,2 km/h (1 Bft) 93,62 %
14.07.2022 05:18 16,6 C 15,6 C 12,8 C 89 % 1020,3 hPa 0,0 l/m 0 min 0 min 0 W/m 3,2 km/h (1 Bft) 93,48 %
14.07.2022 05:20 16,6 C 15,6 C 12,8 C 89 % 1020,2 hPa 0,0 l/m 0 min 0 min 0 W/m 6,4 km/h (2 Bft) 93,62 %
14.07.2022 05:22 16,5 C 15,6 C 12,8 C 89 % 1020,1 hPa 0,0 l/m 0 min 0 min 0 W/m 6,4 km/h (2 Bft) 91,49 %
14.07.2022 05:24 16,5 C 16,1 C 12,8 C 89 % 1020,3 hPa 0,0 l/m 0 min 0 min 0 W/m 9,7 km/h (2 Bft) 91,49 %
14.07.2022 05:26 16,5 C 16,1 C 12,8 C 90 % 1020,3 hPa 0,0 l/m 0 min 0 min 0 W/m 3,2 km/h (1 Bft) 95,74 %
14.07.2022 05:28 16,5 C 16,1 C 12,8 C 90 % 1020,2 hPa 0,0 l/m 0 min 0 min 0 W/m 6,4 km/h (2 Bft) 95,74 %
14.07.2022 05:30 16,5 C 15,6 C 12,8 C 90 % 1020,3 hPa 0,0 l/m 0 min 0 min 0 W/m 9,7 km/h (2 Bft) 95,65 %
14.07.2022 05:32 16,5 C 15,6 C 12,8 C 90 % 1020,3 hPa 0,0 l/m 0 min 0 min 0 W/m 3,2 km/h (1 Bft) 98,18 %
14.07.2022 05:34 16,5 C 15,6 C 12,8 C 90 % 1020,4 hPa 0,0 l/m 0 min 0 min 0 W/m 3,2 km/h (1 Bft) 97,83 %
14.07.2022 05:36 16,4 C 15,6 C 12,8 C 90 % 1020,3 hPa 0,0 l/m 0 min 0 min 3 W/m 9,7 km/h (2 Bft) 97,87 %
14.07.2022 05:38 16,4 C 15,6 C 12,8 C 90 % 1020,3 hPa 0,0 l/m 0 min 0 min 5 W/m 3,2 km/h (1 Bft) 97,87 %
14.07.2022 05:40 16,4 C 15,6 C 12,8 C 90 % 1020,2 hPa 0,0 l/m 0 min 0 min 5 W/m 6,4 km/h (2 Bft) 95,74 %
14.07.2022 05:42 16,4 C 15,6 C 12,8 C 90 % 1020,1 hPa 0,0 l/m 0 min 0 min 5 W/m 6,4 km/h (2 Bft) 97,87 %
14.07.2022 05:44 16,4 C 15,6 C 12,8 C 90 % 1020,1 hPa 0,0 l/m 0 min 0 min 5 W/m 3,2 km/h (1 Bft) 97,83 %
14.07.2022 05:46 16,4 C 15,6 C 12,8 C 90 % 1020,0 hPa 0,0 l/m 0 min 0 min 5 W/m 6,4 km/h (2 Bft) 97,87 %
14.07.2022 05:48 16,4 C 15,6 C 12,8 C 90 % 1020,0 hPa 0,0 l/m 0 min 0 min 5 W/m 6,4 km/h (2 Bft) 97,87 %
14.07.2022 05:50 16,4 C 15,6 C 12,8 C 90 % 1020,0 hPa 0,0 l/m 0 min 0 min 5 W/m 6,4 km/h (2 Bft) 97,87 %
14.07.2022 05:52 16,4 C 15,6 C 12,8 C 90 % 1020,0 hPa 0,0 l/m 0 min 0 min 5 W/m 6,4 km/h (2 Bft) 100,00 %
14.07.2022 05:54 16,4 C 15,6 C 12,8 C 90 % 1020,1 hPa 0,0 l/m 0 min 0 min 5 W/m 6,4 km/h (2 Bft) 100,00 %
14.07.2022 05:56 16,4 C 15,6 C 12,8 C 90 % 1020,1 hPa 0,0 l/m 0 min 0 min 7 W/m 3,2 km/h (1 Bft) 100,00 %
14.07.2022 05:58 16,4 C 15,6 C 12,8 C 90 % 1020,1 hPa 0,0 l/m 0 min 0 min 7 W/m 6,4 km/h (2 Bft) 100,00 %
14.07.2022 06:00 16,4 C 15,6 C 12,8 C 90 % 1020,1 hPa 0,0 l/m 0 min 0 min 7 W/m 6,4 km/h (2 Bft) 100,00 %
14.07.2022 06:02 16,4 C 15,6 C 12,8 C 90 % 1020,1 hPa 0,0 l/m 0 min 0 min 9 W/m 6,4 km/h (2 Bft) 100,00 %
14.07.2022 06:04 16,4 C 15,6 C 12,8 C 90 % 1020,2 hPa 0,0 l/m 0 min 0 min 9 W/m 6,4 km/h (2 Bft) 100,00 %
14.07.2022 06:07 16,3 C 15,6 C 12,2 C 90 % 1020,1 hPa 0,0 l/m 0 min 0 min 9 W/m 6,4 km/h (2 Bft) 100,00 %
14.07.2022 06:08 16,3 C 15,6 C 12,2 C 90 % 1020,1 hPa 0,0 l/m 0 min 0 min 9 W/m 6,4 km/h (2 Bft) 100,00 %
14.07.2022 06:10 16,3 C 15,6 C 12,8 C 90 % 1020,1 hPa 0,0 l/m 0 min 0 min 9 W/m 9,7 km/h (2 Bft) 100,00 %
14.07.2022 06:12 16,3 C 15,6 C 12,8 C 90 % 1020,2 hPa 0,0 l/m 0 min 0 min 9 W/m 9,7 km/h (2 Bft) 100,00 %
14.07.2022 06:14 16,3 C 16,1 C 12,2 C 90 % 1020,2 hPa 0,0 l/m 0 min 0 min 9 W/m 6,4 km/h (2 Bft) 100,00 %
14.07.2022 06:16 16,3 C 15,6 C 12,8 C 90 % 1020,2 hPa 0,0 l/m 0 min 0 min 9 W/m 3,2 km/h (1 Bft) 100,00 %
14.07.2022 06:18 16,3 C 15,6 C 12,8 C 90 % 1020,2 hPa 0,0 l/m 0 min 0 min 9 W/m 6,4 km/h (2 Bft) 100,00 %
14.07.2022 06:20 16,3 C 15,6 C 12,8 C 90 % 1020,3 hPa 0,0 l/m 0 min 0 min 10 W/m 6,4 km/h (2 Bft) 100,00 %
14.07.2022 06:22 16,3 C 15,6 C 12,8 C 90 % 1020,4 hPa 0,0 l/m 0 min 0 min 11 W/m 6,4 km/h (2 Bft) 97,87 %
14.07.2022 06:24 16,3 C 15,6 C 12,8 C 90 % 1020,3 hPa 0,0 l/m 0 min 0 min 12 W/m 3,2 km/h (1 Bft) 100,00 %
14.07.2022 06:26 16,3 C 15,6 C 12,8 C 90 % 1020,4 hPa 0,0 l/m 0 min 0 min 14 W/m 9,7 km/h (2 Bft) 100,00 %
14.07.2022 06:28 16,3 C 15,6 C 12,2 C 90 % 1020,4 hPa 0,0 l/m 0 min 0 min 16 W/m 6,4 km/h (2 Bft) 100,00 %
14.07.2022 06:30 16,3 C 16,1 C 12,2 C 90 % 1020,4 hPa 0,0 l/m 0 min 0 min 17 W/m 3,2 km/h (1 Bft) 100,00 %
14.07.2022 06:32 16,3 C 15,6 C 12,8 C 90 % 1020,3 hPa 0,0 l/m 0 min 0 min 18 W/m 9,7 km/h (2 Bft) 100,00 %
14.07.2022 06:34 16,3 C 15,6 C 12,8 C 90 % 1020,3 hPa 0,0 l/m 0 min 0 min 18 W/m 3,2 km/h (1 Bft) 100,00 %
14.07.2022 06:36 16,4 C 15,6 C 12,8 C 90 % 1020,3 hPa 0,0 l/m 0 min 0 min 17 W/m 6,4 km/h (2 Bft) 100,00 %
14.07.2022 06:38 16,4 C 15,6 C 12,8 C 90 % 1020,4 hPa 0,0 l/m 0 min 0 min 17 W/m 3,2 km/h (1 Bft) 100,00 %
14.07.2022 06:40 16,4 C 15,6 C 12,8 C 90 % 1020,4 hPa 0,0 l/m 0 min 0 min 19 W/m 6,4 km/h (2 Bft) 97,87 %
14.07.2022 06:42 16,4 C 15,6 C 12,8 C 90 % 1020,4 hPa 0,0 l/m 0 min 0 min 21 W/m 6,4 km/h (2 Bft) 100,00 %
14.07.2022 06:44 16,4 C 15,6 C 12,8 C 89 % 1020,5 hPa 0,0 l/m 0 min 0 min 25 W/m 3,2 km/h (1 Bft) 100,00 %
14.07.2022 06:46 16,4 C 15,6 C 12,8 C 90 % 1020,5 hPa 0,0 l/m 0 min 0 min 28 W/m 6,4 km/h (2 Bft) 100,00 %
14.07.2022 06:48 16,4 C 15,6 C 12,8 C 89 % 1020,4 hPa 0,0 l/m 0 min 0 min 27 W/m 3,2 km/h (1 Bft) 100,00 %
14.07.2022 06:50 16,4 C 15,6 C 12,2 C 89 % 1020,4 hPa 0,0 l/m 0 min 0 min 26 W/m 3,2 km/h (1 Bft) 100,00 %
14.07.2022 06:52 16,4 C 15,6 C 12,2 C 89 % 1020,4 hPa 0,0 l/m 0 min 0 min 26 W/m 3,2 km/h (1 Bft) 100,00 %
14.07.2022 06:54 16,3 C 15,6 C 12,2 C 89 % 1020,4 hPa 0,0 l/m 0 min 0 min 29 W/m 3,2 km/h (1 Bft) 97,87 %
14.07.2022 06:56 16,3 C 15,6 C 12,2 C 89 % 1020,4 hPa 0,0 l/m 0 min 0 min 35 W/m 6,4 km/h (2 Bft) 100,00 %
14.07.2022 06:58 16,3 C 15,6 C 12,2 C 89 % 1020,4 hPa 0,0 l/m 0 min 0 min 41 W/m 3,2 km/h (1 Bft) 100,00 %
14.07.2022 07:00 16,3 C 15,6 C 12,2 C 89 % 1020,5 hPa 0,0 l/m 0 min 0 min 43 W/m 6,4 km/h (2 Bft) 100,00 %
14.07.2022 07:02 16,2 C 15,6 C 12,2 C 89 % 1020,6 hPa 0,0 l/m 0 min 0 min 45 W/m 9,7 km/h (2 Bft) 97,87 %
14.07.2022 07:04 16,2 C 15,6 C 12,2 C 89 % 1020,5 hPa 0,0 l/m 0 min 0 min 46 W/m 3,2 km/h (1 Bft) 100,00 %
14.07.2022 07:06 16,2 C 15,6 C 12,2 C 90 % 1020,5 hPa 0,0 l/m 0 min 0 min 45 W/m 9,7 km/h (2 Bft) 97,83 %
14.07.2022 07:08 16,2 C 15,6 C 12,2 C 90 % 1020,4 hPa 0,0 l/m 0 min 0 min 46 W/m 6,4 km/h (2 Bft) 97,87 %
14.07.2022 07:10 16,2 C 15,6 C 12,2 C 90 % 1020,4 hPa 0,0 l/m 0 min 0 min 47 W/m 6,4 km/h (2 Bft) 91,49 %
14.07.2022 07:12 16,2 C 15,6 C 12,2 C 90 % 1020,3 hPa 0,0 l/m 0 min 0 min 48 W/m 6,4 km/h (2 Bft) 95,74 %
14.07.2022 07:14 16,2 C 15,6 C 12,2 C 90 % 1020,3 hPa 0,0 l/m 0 min 0 min 50 W/m 12,9 km/h (3 Bft) 97,87 %
14.07.2022 07:16 16,2 C 15,6 C 12,2 C 90 % 1020,3 hPa 0,0 l/m 0 min 0 min 48 W/m 9,7 km/h (2 Bft) 97,87 %
14.07.2022 07:18 16,2 C 16,1 C 12,2 C 90 % 1020,4 hPa 0,0 l/m 0 min 0 min 47 W/m 6,4 km/h (2 Bft) 97,87 %
14.07.2022 07:20 16,2 C 16,1 C 12,2 C 90 % 1020,4 hPa 0,0 l/m 0 min 0 min 51 W/m 6,4 km/h (2 Bft) 95,65 %
14.07.2022 07:22 16,3 C 16,1 C 12,2 C 90 % 1020,3 hPa 0,0 l/m 0 min 0 min 54 W/m 16,1 km/h (3 Bft) 95,74 %
14.07.2022 07:24 16,3 C 16,1 C 12,2 C 90 % 1020,3 hPa 0,0 l/m 0 min 0 min 62 W/m 6,4 km/h (2 Bft) 95,74 %
14.07.2022 07:26 16,3 C 16,1 C 12,8 C 89 % 1020,4 hPa 0,0 l/m 0 min 0 min 71 W/m 3,2 km/h (1 Bft) 95,74 %
14.07.2022 07:28 16,3 C 16,1 C 12,8 C 89 % 1020,3 hPa 0,0 l/m 0 min 0 min 79 W/m 6,4 km/h (2 Bft) 95,74 %
14.07.2022 07:30 16,3 C 16,1 C 12,8 C 90 % 1020,4 hPa 0,0 l/m 0 min 0 min 82 W/m 3,2 km/h (1 Bft) 95,74 %
14.07.2022 07:32 16,3 C 16,1 C 12,8 C 90 % 1020,3 hPa 0,0 l/m 0 min 0 min 85 W/m 12,9 km/h (3 Bft) 95,65 %
14.07.2022 07:34 16,4 C 16,1 C 12,8 C 89 % 1020,3 hPa 0,0 l/m 0 min 0 min 102 W/m 16,1 km/h (3 Bft) 95,74 %
14.07.2022 07:36 16,4 C 16,7 C 12,8 C 89 % 1020,3 hPa 0,0 l/m 0 min 0 min 129 W/m 12,9 km/h (3 Bft) 97,87 %
14.07.2022 07:38 16,4 C 16,7 C 12,8 C 89 % 1020,3 hPa 0,0 l/m 2 min 0 min 149 W/m 3,2 km/h (1 Bft) 97,87 %
14.07.2022 07:40 16,5 C 16,7 C 13,3 C 89 % 1020,3 hPa 0,0 l/m 2 min 0 min 158 W/m 6,4 km/h (2 Bft) 97,87 %
14.07.2022 07:42 16,6 C 17,2 C 13,3 C 89 % 1020,3 hPa 0,0 l/m 2 min 0 min 142 W/m 6,4 km/h (2 Bft) 95,65 %
14.07.2022 07:44 16,7 C 17,2 C 13,3 C 89 % 1020,4 hPa 0,0 l/m 0 min 0 min 117 W/m 3,2 km/h (1 Bft) 95,74 %
14.07.2022 07:46 16,7 C 17,2 C 13,3 C 89 % 1020,3 hPa 0,0 l/m 0 min 0 min 112 W/m 9,7 km/h (2 Bft) 95,74 %
14.07.2022 07:48 16,8 C 17,2 C 13,3 C 89 % 1020,4 hPa 0,0 l/m 0 min 0 min 110 W/m 6,4 km/h (2 Bft) 95,74 %
14.07.2022 07:50 16,8 C 17,2 C 13,3 C 88 % 1020,3 hPa 0,0 l/m 0 min 0 min 115 W/m 6,4 km/h (2 Bft) 95,74 %
14.07.2022 07:52 16,9 C 16,7 C 13,3 C 88 % 1020,3 hPa 0,0 l/m 0 min 0 min 134 W/m 6,4 km/h (2 Bft) 93,62 %
14.07.2022 07:54 16,9 C 16,7 C 13,3 C 88 % 1020,3 hPa 0,0 l/m 0 min 0 min 144 W/m 12,9 km/h (3 Bft) 95,65 %
14.07.2022 07:56 16,9 C 17,2 C 13,3 C 88 % 1020,3 hPa 0,0 l/m 0 min 0 min 111 W/m 6,4 km/h (2 Bft) 95,74 %
14.07.2022 07:58 17,0 C 17,2 C 13,3 C 88 % 1020,4 hPa 0,0 l/m 0 min 0 min 102 W/m 12,9 km/h (3 Bft) 93,62 %
14.07.2022 08:00 17,1 C 17,2 C 13,3 C 87 % 1020,4 hPa 0,0 l/m 0 min 0 min 98 W/m 6,4 km/h (2 Bft) 95,74 %
14.07.2022 08:02 17,1 C 16,7 C 13,3 C 87 % 1020,4 hPa 0,0 l/m 0 min 0 min 98 W/m 12,9 km/h (3 Bft) 97,87 %
14.07.2022 08:04 17,1 C 16,7 C 13,3 C 87 % 1020,4 hPa 0,0 l/m 0 min 0 min 98 W/m 6,4 km/h (2 Bft) 95,74 %
14.07.2022 08:06 17,1 C 16,7 C 13,3 C 87 % 1020,4 hPa 0,0 l/m 0 min 0 min 99 W/m 6,4 km/h (2 Bft) 95,65 %
14.07.2022 08:08 17,1 C 17,2 C 13,3 C 87 % 1020,5 hPa 0,0 l/m 0 min 0 min 108 W/m 6,4 km/h (2 Bft) 95,74 %
14.07.2022 08:10 17,1 C 17,2 C 13,3 C 87 % 1020,6 hPa 0,0 l/m 0 min 0 min 109 W/m 6,4 km/h (2 Bft) 95,74 %
14.07.2022 08:12 17,1 C 17,2 C 13,3 C 87 % 1020,6 hPa 0,0 l/m 0 min 0 min 139 W/m 12,9 km/h (3 Bft) 95,74 %
14.07.2022 08:14 17,1 C 17,2 C 13,3 C 86 % 1020,6 hPa 0,0 l/m 2 min 0 min 188 W/m 9,7 km/h (2 Bft) 93,62 %
14.07.2022 08:16 17,2 C 17,2 C 13,3 C 86 % 1020,5 hPa 0,0 l/m 2 min 0 min 249 W/m 9,7 km/h (2 Bft) 97,87 %
14.07.2022 08:18 17,2 C 18,3 C 13,9 C 86 % 1020,5 hPa 0,0 l/m 2 min 0 min 363 W/m 9,7 km/h (2 Bft) 97,87 %
14.07.2022 08:20 17,3 C 18,9 C 13,9 C 87 % 1020,5 hPa 0,0 l/m 2 min 0 min 361 W/m 6,4 km/h (2 Bft) 97,83 %
14.07.2022 08:22 17,4 C 18,9 C 13,9 C 86 % 1020,5 hPa 0,0 l/m 2 min 0 min 282 W/m 9,7 km/h (2 Bft) 97,87 %
14.07.2022 08:24 17,6 C 19,4 C 13,9 C 86 % 1020,5 hPa 0,0 l/m 2 min 0 min 206 W/m 6,4 km/h (2 Bft) 95,74 %
14.07.2022 08:26 17,8 C 19,4 C 14,4 C 86 % 1020,5 hPa 0,0 l/m 2 min 0 min 459 W/m 12,9 km/h (3 Bft) 95,74 %
14.07.2022 08:28 17,9 C 19,4 C 14,4 C 85 % 1020,5 hPa 0,0 l/m 2 min 0 min 429 W/m 6,4 km/h (2 Bft) 97,87 %
14.07.2022 08:30 18,1 C 19,4 C 14,4 C 85 % 1020,5 hPa 0,0 l/m 2 min 0 min 228 W/m 6,4 km/h (2 Bft) 100,00 %
14.07.2022 08:32 18,2 C 20,0 C 14,4 C 84 % 1020,5 hPa 0,0 l/m 2 min 0 min 267 W/m 9,7 km/h (2 Bft) 100,00 %
14.07.2022 08:34 18,3 C 20,0 C 15,0 C 83 % 1020,5 hPa 0,0 l/m 2 min 0 min 294 W/m 9,7 km/h (2 Bft) 100,00 %
14.07.2022 08:36 18,3 C 19,4 C 15,0 C 83 % 1020,5 hPa 0,0 l/m 2 min 0 min 220 W/m 6,4 km/h (2 Bft) 100,00 %
14.07.2022 08:38 18,4 C 19,4 C 15,0 C 83 % 1020,5 hPa 0,0 l/m 0 min 0 min 197 W/m 9,7 km/h (2 Bft) 100,00 %
14.07.2022 08:40 18,4 C 19,4 C 15,0 C 82 % 1020,5 hPa 0,0 l/m 0 min 0 min 200 W/m 3,2 km/h (1 Bft) 97,87 %
14.07.2022 08:42 18,4 C 19,4 C 15,0 C 83 % 1020,5 hPa 0,0 l/m 0 min 0 min 204 W/m 9,7 km/h (2 Bft) 100,00 %
14.07.2022 08:44 18,5 C 19,4 C 15,0 C 83 % 1020,5 hPa 0,0 l/m 2 min 0 min 224 W/m 9,7 km/h (2 Bft) 100,00 %
14.07.2022 08:46 18,5 C 19,4 C 15,0 C 82 % 1020,6 hPa 0,0 l/m 2 min 0 min 262 W/m 16,1 km/h (3 Bft) 100,00 %
14.07.2022 08:48 18,5 C 18,9 C 15,0 C 82 % 1020,6 hPa 0,0 l/m 2 min 0 min 266 W/m 19,3 km/h (3 Bft) 100,00 %
14.07.2022 08:50 18,5 C 18,9 C 15,0 C 82 % 1020,6 hPa 0,0 l/m 0 min 0 min 221 W/m 9,7 km/h (2 Bft) 100,00 %
14.07.2022 08:52 18,6 C 18,9 C 15,0 C 82 % 1020,6 hPa 0,0 l/m 0 min 0 min 189 W/m 6,4 km/h (2 Bft) 100,00 %
14.07.2022 08:54 18,6 C 18,9 C 15,0 C 82 % 1020,6 hPa 0,0 l/m 0 min 0 min 192 W/m 12,9 km/h (3 Bft) 100,00 %
14.07.2022 08:56 18,6 C 18,9 C 15,0 C 82 % 1020,5 hPa 0,0 l/m 0 min 0 min 187 W/m 9,7 km/h (2 Bft) 95,74 %
14.07.2022 08:58 18,6 C 19,4 C 15,0 C 82 % 1020,5 hPa 0,0 l/m 0 min 0 min 223 W/m 6,4 km/h (2 Bft) 100,00 %
14.07.2022 09:00 18,6 C 19,4 C 15,6 C 82 % 1020,4 hPa 0,0 l/m 2 min 0 min 311 W/m 12,9 km/h (3 Bft) 100,00 %
14.07.2022 09:02 18,7 C 20,6 C 16,1 C 82 % 1020,4 hPa 0,0 l/m 2 min 0 min 439 W/m 6,4 km/h (2 Bft) 100,00 %
14.07.2022 09:04 18,8 C 21,1 C 16,1 C 82 % 1020,4 hPa 0,0 l/m 2 min 0 min 393 W/m 9,7 km/h (2 Bft) 100,00 %
14.07.2022 09:06 19,0 C 21,7 C 16,1 C 81 % 1020,4 hPa 0,0 l/m 2 min 0 min 321 W/m 6,4 km/h (2 Bft) 97,83 %
14.07.2022 09:08 19,1 C 21,7 C 16,1 C 81 % 1020,3 hPa 0,0 l/m 2 min 0 min 385 W/m 6,4 km/h (2 Bft) 95,74 %
14.07.2022 09:10 19,2 C 21,7 C 16,1 C 80 % 1020,3 hPa 0,0 l/m 2 min 0 min 328 W/m 9,7 km/h (2 Bft) 97,87 %
14.07.2022 09:12 19,3 C 21,1 C 16,7 C 80 % 1020,4 hPa 0,0 l/m 2 min 0 min 339 W/m 9,7 km/h (2 Bft) 97,87 %
14.07.2022 09:14 19,3 C 21,1 C 16,1 C 80 % 1020,3 hPa 0,0 l/m 2 min 0 min 282 W/m 12,9 km/h (3 Bft) 95,74 %
14.07.2022 09:16 19,3 C 20,6 C 16,1 C 79 % 1020,4 hPa 0,0 l/m 2 min 0 min 299 W/m 19,3 km/h (3 Bft) 97,87 %
14.07.2022 09:18 19,3 C 20,6 C 16,1 C 79 % 1020,4 hPa 0,0 l/m 2 min 0 min 347 W/m 16,1 km/h (3 Bft) 95,65 %
14.07.2022 09:20 19,3 C 21,7 C 16,7 C 79 % 1020,4 hPa 0,0 l/m 2 min 0 min 397 W/m 12,9 km/h (3 Bft) 97,87 %
14.07.2022 09:22 19,3 C 21,7 C 16,7 C 79 % 1020,4 hPa 0,0 l/m 2 min 0 min 366 W/m 9,7 km/h (2 Bft) 97,87 %
14.07.2022 09:24 19,3 C 21,1 C 16,7 C 79 % 1020,4 hPa 0,0 l/m 2 min 0 min 290 W/m 16,1 km/h (3 Bft) 97,87 %
14.07.2022 09:26 19,3 C 20,6 C 16,7 C 79 % 1020,3 hPa 0,0 l/m 2 min 0 min 294 W/m 9,7 km/h (2 Bft) 97,87 %
14.07.2022 09:28 19,3 C 20,6 C 16,7 C 79 % 1020,3 hPa 0,0 l/m 2 min 0 min 303 W/m 6,4 km/h (2 Bft) 97,87 %
14.07.2022 09:30 19,3 C 20,6 C 16,7 C 79 % 1020,3 hPa 0,0 l/m 0 min 0 min 239 W/m 9,7 km/h (2 Bft) 97,83 %
14.07.2022 09:32 19,3 C 20,0 C 16,1 C 79 % 1020,3 hPa 0,0 l/m 0 min 0 min 201 W/m 9,7 km/h (2 Bft) 97,87 %
14.07.2022 09:34 19,3 C 19,4 C 16,1 C 78 % 1020,4 hPa 0,0 l/m 0 min 0 min 184 W/m 12,9 km/h (3 Bft) 97,87 %
14.07.2022 09:36 19,2 C 19,4 C 15,6 C 78 % 1020,4 hPa 0,0 l/m 0 min 0 min 210 W/m 12,9 km/h (3 Bft) 97,87 %
14.07.2022 09:38 19,1 C 20,0 C 16,1 C 78 % 1020,4 hPa 0,0 l/m 0 min 0 min 256 W/m 9,7 km/h (2 Bft) 97,87 %
14.07.2022 09:40 19,1 C 20,6 C 16,1 C 79 % 1020,4 hPa 0,0 l/m 2 min 0 min 320 W/m 9,7 km/h (2 Bft) 100,00 %
14.07.2022 09:42 19,1 C 21,1 C 16,7 C 79 % 1020,4 hPa 0,0 l/m 2 min 0 min 334 W/m 3,2 km/h (1 Bft) 100,00 %
14.07.2022 09:44 19,1 C 21,7 C 16,7 C 79 % 1020,4 hPa 0,0 l/m 2 min 0 min 333 W/m 12,9 km/h (3 Bft) 97,87 %
14.07.2022 09:46 19,2 C 21,1 C 16,7 C 79 % 1020,4 hPa 0,0 l/m 0 min 0 min 237 W/m 9,7 km/h (2 Bft) 100,00 %
14.07.2022 09:48 19,2 C 21,1 C 16,7 C 78 % 1020,3 hPa 0,0 l/m 0 min 0 min 220 W/m 12,9 km/h (3 Bft) 100,00 %
14.07.2022 09:50 19,2 C 21,7 C 16,7 C 78 % 1020,3 hPa 0,0 l/m 0 min 0 min 279 W/m 12,9 km/h (3 Bft) 100,00 %
14.07.2022 09:52 19,3 C 22,2 C 17,2 C 78 % 1020,3 hPa 0,0 l/m 2 min 0 min 477 W/m 12,9 km/h (3 Bft) 100,00 %
14.07.2022 09:54 19,3 C 22,2 C 17,2 C 77 % 1020,4 hPa 0,0 l/m 2 min 0 min 685 W/m 9,7 km/h (2 Bft) 100,00 %
14.07.2022 09:56 19,3 C 22,8 C 17,8 C 78 % 1020,3 hPa 0,0 l/m 2 min 0 min 704 W/m 12,9 km/h (3 Bft) 100,00 %
14.07.2022 09:58 19,6 C 23,9 C 17,8 C 78 % 1020,4 hPa 0,0 l/m 2 min 0 min 696 W/m 6,4 km/h (2 Bft) 100,00 %
14.07.2022 10:00 19,8 C 24,4 C 18,3 C 77 % 1020,4 hPa 0,0 l/m 2 min 0 min 745 W/m 9,7 km/h (2 Bft) 100,00 %
14.07.2022 10:02 20,1 C 25,0 C 18,3 C 77 % 1020,3 hPa 0,0 l/m 2 min 0 min 777 W/m 9,7 km/h (2 Bft) 100,00 %
14.07.2022 10:04 20,2 C 25,6 C 18,9 C 77 % 1020,3 hPa 0,0 l/m 2 min 0 min 571 W/m 6,4 km/h (2 Bft) 97,87 %
14.07.2022 10:06 20,4 C 25,0 C 18,9 C 75 % 1020,3 hPa 0,0 l/m 2 min 0 min 669 W/m 9,7 km/h (2 Bft) 100,00 %
14.07.2022 10:08 20,5 C 24,4 C 17,8 C 74 % 1020,3 hPa 0,0 l/m 2 min 0 min 367 W/m 6,4 km/h (2 Bft) 100,00 %
14.07.2022 10:10 20,6 C 23,3 C 17,8 C 73 % 1020,2 hPa 0,0 l/m 0 min 0 min 277 W/m 9,7 km/h (2 Bft) 100,00 %
14.07.2022 10:12 20,5 C 22,8 C 17,8 C 72 % 1020,2 hPa 0,0 l/m 0 min 0 min 256 W/m 6,4 km/h (2 Bft) 100,00 %
14.07.2022 10:14 20,4 C 22,8 C 17,8 C 73 % 1020,1 hPa 0,0 l/m 0 min 0 min 243 W/m 6,4 km/h (2 Bft) 100,00 %
14.07.2022 10:16 20,4 C 23,3 C 17,8 C 73 % 1020,1 hPa 0,0 l/m 0 min 0 min 272 W/m 9,7 km/h (2 Bft) 100,00 %
14.07.2022 10:18 20,6 C 24,4 C 18,3 C 73 % 1020,1 hPa 0,0 l/m 2 min 0 min 740 W/m 9,7 km/h (2 Bft) 97,83 %
14.07.2022 10:20 20,6 C 24,4 C 18,9 C 71 % 1020,1 hPa 0,0 l/m 2 min 0 min 874 W/m 6,4 km/h (2 Bft) 95,74 %
14.07.2022 10:22 20,7 C 25,0 C 18,9 C 70 % 1020,1 hPa 0,0 l/m 2 min 0 min 799 W/m 6,4 km/h (2 Bft) 97,87 %
14.07.2022 10:24 20,7 C 23,9 C 18,3 C 69 % 1020,1 hPa 0,0 l/m 2 min 0 min 597 W/m 9,7 km/h (2 Bft) 97,14 %
14.07.2022 10:26 20,8 C 23,3 C 17,8 C 68 % 1020,1 hPa 0,0 l/m 2 min 0 min 344 W/m 12,9 km/h (3 Bft) 98,31 %
14.07.2022 10:28 20,6 C 22,2 C 17,8 C 68 % 1020,1 hPa 0,0 l/m 0 min 0 min 271 W/m 16,1 km/h (3 Bft) 97,87 %
14.07.2022 10:30 20,4 C 21,1 C 17,8 C 68 % 1020,0 hPa 0,0 l/m 0 min 0 min 257 W/m 6,4 km/h (2 Bft) 97,83 %
14.07.2022 10:32 20,3 C 21,1 C 17,2 C 69 % 1020,0 hPa 0,0 l/m 0 min 0 min 272 W/m 6,4 km/h (2 Bft) 97,22 %
14.07.2022 10:34 20,2 C 21,1 C 17,2 C 69 % 1019,9 hPa 0,0 l/m 0 min 0 min 264 W/m 12,9 km/h (3 Bft) 97,92 %
14.07.2022 10:36 20,2 C 21,1 C 17,8 C 70 % 1019,9 hPa 0,0 l/m 0 min 0 min 264 W/m 9,7 km/h (2 Bft) 96,00 %
14.07.2022 10:38 20,3 C 21,7 C 17,8 C 70 % 1019,9 hPa 0,0 l/m 0 min 0 min 264 W/m 9,7 km/h (2 Bft) 97,78 %
14.07.2022 10:40 20,3 C 22,2 C 18,3 C 70 % 1019,8 hPa 0,0 l/m 0 min 0 min 264 W/m 9,7 km/h (2 Bft) 97,87 %
14.07.2022 10:42 20,3 C 21,7 C 18,3 C 68 % 1019,8 hPa 0,0 l/m 0 min 0 min 264 W/m 12,9 km/h (3 Bft) 97,87 %
14.07.2022 10:44 20,3 C 21,7 C 18,3 C 67 % 1019,8 hPa 0,0 l/m 2 min 0 min 409 W/m 12,9 km/h (3 Bft) 95,65 %
14.07.2022 10:46 20,4 C 22,2 C 18,9 C 67 % 1019,8 hPa 0,0 l/m 2 min 0 min 508 W/m 9,7 km/h (2 Bft) 97,87 %
14.07.2022 10:48 20,5 C 22,2 C 19,4 C 66 % 1019,8 hPa 0,0 l/m 2 min 0 min 679 W/m 12,9 km/h (3 Bft) 97,87 %
14.07.2022 10:50 20,6 C 22,2 C 19,4 C 65 % 1019,8 hPa 0,0 l/m 2 min 0 min 628 W/m 12,9 km/h (3 Bft) 97,87 %
14.07.2022 10:52 20,8 C 22,8 C 20,0 C 64 % 1019,8 hPa 0,0 l/m 2 min 0 min 619 W/m 6,4 km/h (2 Bft) 95,74 %
14.07.2022 10:54 20,8 C 22,8 C 19,4 C 64 % 1019,9 hPa 0,0 l/m 2 min 0 min 632 W/m 12,9 km/h (3 Bft) 95,74 %
14.07.2022 10:56 20,9 C 23,3 C 20,0 C 64 % 1019,8 hPa 0,0 l/m 2 min 0 min 766 W/m 9,7 km/h (2 Bft) 97,83 %
14.07.2022 10:58 21,1 C 23,9 C 19,4 C 64 % 1019,8 hPa 0,0 l/m 2 min 0 min 562 W/m 9,7 km/h (2 Bft) 97,87 %
14.07.2022 11:00 21,2 C 23,9 C 18,9 C 64 % 1019,8 hPa 0,0 l/m 2 min 0 min 664 W/m 9,7 km/h (2 Bft) 100,00 %
14.07.2022 11:02 21,3 C 24,4 C 18,9 C 64 % 1019,8 hPa 0,0 l/m 2 min 0 min 670 W/m 9,7 km/h (2 Bft) 97,87 %
14.07.2022 11:04 21,4 C 24,4 C 18,9 C 63 % 1019,8 hPa 0,0 l/m 2 min 0 min 506 W/m 12,9 km/h (3 Bft) 97,87 %
14.07.2022 11:06 21,4 C 23,9 C 18,9 C 63 % 1019,9 hPa 0,0 l/m 2 min 0 min 548 W/m 6,4 km/h (2 Bft) 100,00 %
14.07.2022 11:08 21,5 C 23,9 C 18,9 C 63 % 1019,9 hPa 0,0 l/m 2 min 0 min 376 W/m 9,7 km/h (2 Bft) 95,65 %
14.07.2022 11:10 21,5 C 23,3 C 18,3 C 63 % 1019,9 hPa 0,0 l/m 2 min 0 min 415 W/m 12,9 km/h (3 Bft) 95,74 %
14.07.2022 11:12 21,4 C 23,3 C 18,3 C 63 % 1019,9 hPa 0,0 l/m 2 min 0 min 393 W/m 6,4 km/h (2 Bft) 93,62 %
14.07.2022 11:14 21,4 C 23,9 C 18,3 C 63 % 1019,9 hPa 0,0 l/m 2 min 0 min 641 W/m 9,7 km/h (2 Bft) 95,74 %
14.07.2022 11:16 21,5 C 23,9 C 18,3 C 63 % 1019,9 hPa 0,0 l/m 2 min 0 min 845 W/m 9,7 km/h (2 Bft) 93,62 %
14.07.2022 11:18 21,6 C 25,0 C 18,9 C 63 % 1019,9 hPa 0,0 l/m 2 min 0 min 732 W/m 9,7 km/h (2 Bft) 95,74 %
14.07.2022 11:20 21,8 C 24,4 C 18,9 C 62 % 1019,9 hPa 0,0 l/m 2 min 0 min 860 W/m 12,9 km/h (3 Bft) 95,65 %
14.07.2022 11:22 21,8 C 24,4 C 18,9 C 61 % 1019,9 hPa 0,0 l/m 2 min 0 min 582 W/m 16,1 km/h (3 Bft) 95,74 %
14.07.2022 11:24 21,9 C 24,4 C 19,4 C 60 % 1019,9 hPa 0,0 l/m 2 min 0 min 582 W/m 9,7 km/h (2 Bft) 95,74 %
14.07.2022 11:26 21,9 C 24,4 C 19,4 C 59 % 1019,9 hPa 0,0 l/m 2 min 0 min 590 W/m 16,1 km/h (3 Bft) 95,74 %
14.07.2022 11:28 21,9 C 24,4 C 20,0 C 59 % 1019,9 hPa 0,0 l/m 2 min 0 min 765 W/m 16,1 km/h (3 Bft) 93,62 %
14.07.2022 11:30 22,1 C 25,0 C 21,1 C 59 % 1019,8 hPa 0,0 l/m 2 min 0 min 870 W/m 12,9 km/h (3 Bft) 95,74 %
14.07.2022 11:32 22,1 C 25,0 C 21,7 C 59 % 1019,8 hPa 0,0 l/m 2 min 0 min 894 W/m 6,4 km/h (2 Bft) 95,65 %
14.07.2022 11:34 22,2 C 25,0 C 21,7 C 59 % 1019,9 hPa 0,0 l/m 2 min 0 min 865 W/m 12,9 km/h (3 Bft) 95,74 %
14.07.2022 11:36 22,3 C 24,4 C 21,1 C 59 % 1019,8 hPa 0,0 l/m 2 min 0 min 847 W/m 12,9 km/h (3 Bft) 95,74 %
14.07.2022 11:38 22,2 C 24,4 C 21,1 C 59 % 1019,8 hPa 0,0 l/m 2 min 0 min 847 W/m 6,4 km/h (2 Bft) 93,62 %
14.07.2022 11:40 22,2 C 23,9 C 20,6 C 58 % 1019,7 hPa 0,0 l/m 2 min 0 min 524 W/m 3,2 km/h (1 Bft) 95,74 %
14.07.2022 11:42 22,1 C 23,3 C 20,6 C 59 % 1019,7 hPa 0,0 l/m 0 min 0 min 371 W/m 12,9 km/h (3 Bft) 95,74 %
14.07.2022 11:44 22,0 C 23,3 C 20,0 C 61 % 1019,7 hPa 0,0 l/m 0 min 0 min 367 W/m 6,4 km/h (2 Bft) 97,83 %
14.07.2022 11:46 22,0 C 23,3 C 20,0 C 60 % 1019,7 hPa 0,0 l/m 0 min 0 min 341 W/m 12,9 km/h (3 Bft) 97,87 %
14.07.2022 11:48 21,9 C 23,3 C 20,0 C 58 % 1019,8 hPa 0,0 l/m 0 min 0 min 348 W/m 16,1 km/h (3 Bft) 95,74 %
14.07.2022 11:50 21,9 C 23,3 C 20,0 C 57 % 1019,8 hPa 0,0 l/m 2 min 0 min 411 W/m 12,9 km/h (3 Bft) 97,87 %
14.07.2022 11:52 22,0 C 23,9 C 20,6 C 57 % 1019,8 hPa 0,0 l/m 2 min 0 min 763 W/m 9,7 km/h (2 Bft) 97,87 %
14.07.2022 11:54 22,1 C 24,4 C 21,1 C 58 % 1019,8 hPa 0,0 l/m 2 min 0 min 763 W/m 19,3 km/h (3 Bft) 97,87 %
14.07.2022 11:56 22,1 C 24,4 C 21,7 C 58 % 1019,8 hPa 0,0 l/m 2 min 0 min 892 W/m 16,1 km/h (3 Bft) 97,83 %
14.07.2022 11:58 22,2 C 25,0 C 20,6 C 58 % 1019,7 hPa 0,0 l/m 2 min 0 min 887 W/m 12,9 km/h (3 Bft) 97,87 %
14.07.2022 12:00 22,2 C 25,0 C 20,6 C 58 % 1019,7 hPa 0,0 l/m 2 min 0 min 874 W/m 9,7 km/h (2 Bft) 97,87 %
14.07.2022 12:02 22,3 C 25,6 C 20,0 C 58 % 1019,6 hPa 0,0 l/m 2 min 0 min 871 W/m 9,7 km/h (2 Bft) 100,00 %
14.07.2022 12:04 22,5 C 26,1 C 20,6 C 59 % 1019,6 hPa 0,0 l/m 2 min 0 min 866 W/m 16,1 km/h (3 Bft) 97,87 %
14.07.2022 12:07 22,7 C 26,1 C 21,1 C 57 % 1019,8 hPa 0,0 l/m 3 min 0 min 864 W/m 16,1 km/h (3 Bft) 97,18 %
14.07.2022 12:08 22,8 C 26,1 C 21,7 C 57 % 1019,8 hPa 0,0 l/m 1 min 0 min 871 W/m 9,7 km/h (2 Bft) 95,83 %
14.07.2022 12:10 22,8 C 25,6 C 21,7 C 56 % 1019,8 hPa 0,0 l/m 2 min 0 min 870 W/m 9,7 km/h (2 Bft) 97,87 %
14.07.2022 12:12 22,8 C 26,1 C 21,1 C 56 % 1019,7 hPa 0,0 l/m 2 min 0 min 869 W/m 12,9 km/h (3 Bft) 95,74 %
14.07.2022 12:14 22,9 C 26,1 C 21,1 C 56 % 1019,7 hPa 0,0 l/m 2 min 0 min 871 W/m 9,7 km/h (2 Bft) 100,00 %
14.07.2022 12:16 23,0 C 26,1 C 22,2 C 56 % 1019,7 hPa 0,0 l/m 2 min 0 min 869 W/m 12,9 km/h (3 Bft) 100,00 %
14.07.2022 12:18 23,2 C 26,1 C 22,8 C 56 % 1019,7 hPa 0,0 l/m 2 min 0 min 878 W/m 9,7 km/h (2 Bft) 100,00 %
14.07.2022 12:20 23,2 C 26,1 C 23,3 C 55 % 1019,7 hPa 0,0 l/m 2 min 0 min 882 W/m 12,9 km/h (3 Bft) 100,00 %
14.07.2022 12:22 23,3 C 25,6 C 24,4 C 55 % 1019,7 hPa 0,0 l/m 2 min 0 min 880 W/m 9,7 km/h (2 Bft) 100,00 %
14.07.2022 12:24 23,4 C 26,1 C 25,0 C 55 % 1019,7 hPa 0,0 l/m 2 min 0 min 882 W/m 9,7 km/h (2 Bft) 100,00 %
14.07.2022 12:26 23,5 C 25,6 C 25,0 C 55 % 1019,8 hPa 0,0 l/m 2 min 0 min 888 W/m 19,3 km/h (3 Bft) 100,00 %
14.07.2022 12:28 23,5 C 25,6 C 26,1 C 54 % 1019,8 hPa 0,0 l/m 2 min 0 min 887 W/m 12,9 km/h (3 Bft) 100,00 %
14.07.2022 12:30 23,6 C 26,1 C 26,7 C 55 % 1019,8 hPa 0,0 l/m 2 min 0 min 884 W/m 9,7 km/h (2 Bft) 98,11 %
14.07.2022 12:32 23,6 C 26,1 C 26,7 C 55 % 1019,8 hPa 0,0 l/m 2 min 0 min 887 W/m 9,7 km/h (2 Bft) 100,00 %
14.07.2022 12:34 23,7 C 26,1 C 27,2 C 55 % 1019,7 hPa 0,0 l/m 2 min 0 min 883 W/m 12,9 km/h (3 Bft) 97,87 %
14.07.2022 12:36 23,8 C 26,1 C 26,7 C 55 % 1019,8 hPa 0,0 l/m 2 min 0 min 885 W/m 19,3 km/h (3 Bft) 97,87 %
14.07.2022 12:38 23,8 C 26,1 C 27,2 C 55 % 1019,7 hPa 0,0 l/m 2 min 0 min 894 W/m 16,1 km/h (3 Bft) 100,00 %
14.07.2022 12:40 23,9 C 26,1 C 26,7 C 53 % 1019,7 hPa 0,0 l/m 2 min 0 min 893 W/m 29,0 km/h (5 Bft) 100,00 %
14.07.2022 12:42 23,9 C 26,1 C 27,2 C 53 % 1019,8 hPa 0,0 l/m 2 min 0 min 897 W/m 12,9 km/h (3 Bft) 100,00 %
14.07.2022 12:44 23,9 C 26,1 C 27,8 C 54 % 1019,7 hPa 0,0 l/m 2 min 0 min 897 W/m 9,7 km/h (2 Bft) 100,00 %
14.07.2022 12:46 23,9 C 26,1 C 27,8 C 54 % 1019,7 hPa 0,0 l/m 2 min 0 min 897 W/m 16,1 km/h (3 Bft) 100,00 %
14.07.2022 12:48 23,9 C 26,1 C 28,3 C 53 % 1019,7 hPa 0,0 l/m 2 min 0 min 898 W/m 12,9 km/h (3 Bft) 100,00 %
14.07.2022 12:50 24,0 C 26,1 C 27,8 C 54 % 1019,8 hPa 0,0 l/m 2 min 0 min 897 W/m 19,3 km/h (3 Bft) 97,87 %
14.07.2022 12:52 24,0 C 25,6 C 27,2 C 53 % 1019,7 hPa 0,0 l/m 2 min 0 min 896 W/m 16,1 km/h (3 Bft) 95,74 %
14.07.2022 12:54 24,1 C 26,1 C 26,7 C 53 % 1019,7 hPa 0,0 l/m 2 min 0 min 896 W/m 9,7 km/h (2 Bft) 97,83 %
14.07.2022 12:56 24,1 C 25,6 C 26,7 C 53 % 1019,7 hPa 0,0 l/m 2 min 0 min 899 W/m 25,7 km/h (4 Bft) 97,87 %
14.07.2022 12:58 24,0 C 25,0 C 25,6 C 54 % 1019,6 hPa 0,0 l/m 2 min 0 min 901 W/m 16,1 km/h (3 Bft) 97,87 %
14.07.2022 13:00 24,0 C 25,6 C 25,0 C 53 % 1019,6 hPa 0,0 l/m 2 min 0 min 904 W/m 12,9 km/h (3 Bft) 93,62 %
14.07.2022 13:02 24,0 C 25,6 C 23,9 C 53 % 1019,6 hPa 0,0 l/m 2 min 0 min 905 W/m 16,1 km/h (3 Bft) 97,87 %
14.07.2022 13:04 24,1 C 25,6 C 22,8 C 52 % 1019,6 hPa 0,0 l/m 2 min 0 min 907 W/m 29,0 km/h (5 Bft) 97,87 %
14.07.2022 13:06 24,1 C 25,6 C 22,8 C 52 % 1019,5 hPa 0,0 l/m 2 min 0 min 910 W/m 19,3 km/h (3 Bft) 97,83 %
14.07.2022 13:08 24,2 C 25,6 C 22,8 C 53 % 1019,6 hPa 0,0 l/m 2 min 0 min 908 W/m 12,9 km/h (3 Bft) 97,87 %
14.07.2022 13:10 24,3 C 25,6 C 22,8 C 51 % 1019,6 hPa 0,0 l/m 2 min 0 min 907 W/m 22,5 km/h (4 Bft) 93,62 %
14.07.2022 13:12 24,3 C 25,6 C 22,2 C 52 % 1019,6 hPa 0,0 l/m 2 min 0 min 904 W/m 19,3 km/h (3 Bft) 95,74 %
14.07.2022 13:14 24,3 C 25,0 C 21,7 C 52 % 1019,6 hPa 0,0 l/m 2 min 0 min 902 W/m 25,7 km/h (4 Bft) 95,74 %
14.07.2022 13:16 24,3 C 25,6 C 22,2 C 52 % 1019,6 hPa 0,0 l/m 2 min 0 min 902 W/m 22,5 km/h (4 Bft) 95,74 %
14.07.2022 13:18 24,3 C 25,6 C 21,7 C 52 % 1019,7 hPa 0,0 l/m 2 min 0 min 902 W/m 19,3 km/h (3 Bft) 95,65 %
14.07.2022 13:20 24,3 C 25,6 C 21,1 C 51 % 1019,6 hPa 0,0 l/m 2 min 0 min 905 W/m 12,9 km/h (3 Bft) 95,74 %
14.07.2022 13:22 24,2 C 25,0 C 21,1 C 52 % 1019,7 hPa 0,0 l/m 2 min 0 min 911 W/m 16,1 km/h (3 Bft) 95,74 %
14.07.2022 13:24 24,2 C 25,6 C 21,1 C 51 % 1019,7 hPa 0,0 l/m 2 min 0 min 908 W/m 12,9 km/h (3 Bft) 95,74 %
14.07.2022 13:26 24,3 C 25,6 C 21,1 C 50 % 1019,7 hPa 0,0 l/m 2 min 0 min 914 W/m 12,9 km/h (3 Bft) 93,62 %
14.07.2022 13:28 24,3 C 26,1 C 21,1 C 51 % 1019,7 hPa 0,0 l/m 2 min 0 min 906 W/m 12,9 km/h (3 Bft) 95,74 %
14.07.2022 13:30 24,5 C 26,1 C 21,1 C 51 % 1019,7 hPa 0,0 l/m 2 min 0 min 915 W/m 12,9 km/h (3 Bft) 97,83 %
14.07.2022 13:32 24,6 C 26,1 C 21,7 C 51 % 1019,6 hPa 0,0 l/m 2 min 0 min 893 W/m 22,5 km/h (4 Bft) 95,74 %
14.07.2022 13:34 24,6 C 26,1 C 21,7 C 50 % 1019,6 hPa 0,0 l/m 2 min 0 min 916 W/m 19,3 km/h (3 Bft) 97,87 %
14.07.2022 13:36 24,7 C 26,1 C 22,2 C 49 % 1019,6 hPa 0,0 l/m 2 min 0 min 918 W/m 29,0 km/h (5 Bft) 97,87 %
14.07.2022 13:38 24,7 C 26,1 C 22,8 C 50 % 1019,6 hPa 0,0 l/m 2 min 0 min 917 W/m 22,5 km/h (4 Bft) 97,87 %
14.07.2022 13:40 24,7 C 26,1 C 23,3 C 49 % 1019,7 hPa 0,0 l/m 2 min 0 min 918 W/m 25,7 km/h (4 Bft) 97,87 %
14.07.2022 13:42 24,7 C 26,1 C 24,4 C 49 % 1019,6 hPa 0,0 l/m 2 min 0 min 915 W/m 19,3 km/h (3 Bft) 97,83 %
14.07.2022 13:44 24,7 C 26,1 C 25,0 C 50 % 1019,6 hPa 0,0 l/m 2 min 0 min 924 W/m 19,3 km/h (3 Bft) 97,87 %
14.07.2022 13:46 24,6 C 26,1 C 26,1 C 50 % 1019,7 hPa 0,0 l/m 2 min 0 min 920 W/m 29,0 km/h (5 Bft) 100,00 %
14.07.2022 13:48 24,6 C 26,1 C 26,7 C 50 % 1019,7 hPa 0,0 l/m 2 min 0 min 917 W/m 12,9 km/h (3 Bft) 100,00 %
14.07.2022 13:50 24,6 C 26,7 C 27,2 C 50 % 1019,7 hPa 0,0 l/m 2 min 0 min 916 W/m 16,1 km/h (3 Bft) 100,00 %
14.07.2022 13:52 24,7 C 26,7 C 26,7 C 50 % 1019,6 hPa 0,0 l/m 2 min 0 min 913 W/m 22,5 km/h (4 Bft) 100,00 %
14.07.2022 13:54 24,7 C 26,7 C 26,7 C 49 % 1019,6 hPa 0,0 l/m 2 min 0 min 928 W/m 25,7 km/h (4 Bft) 100,00 %
14.07.2022 13:56 24,8 C 27,2 C 27,2 C 50 % 1019,6 hPa 0,0 l/m 2 min 0 min 937 W/m 12,9 km/h (3 Bft) 97,87 %
14.07.2022 13:58 24,8 C 26,7 C 26,1 C 49 % 1019,6 hPa 0,0 l/m 2 min 0 min 947 W/m 12,9 km/h (3 Bft) 100,00 %
14.07.2022 14:00 24,8 C 26,7 C 25,6 C 50 % 1019,6 hPa 0,0 l/m 2 min 0 min 949 W/m 16,1 km/h (3 Bft) 97,87 %
14.07.2022 14:02 24,7 C 26,7 C 25,0 C 49 % 1019,5 hPa 0,0 l/m 2 min 0 min 948 W/m 16,1 km/h (3 Bft) 100,00 %
14.07.2022 14:04 24,7 C 27,2 C 24,4 C 51 % 1019,6 hPa 0,0 l/m 2 min 0 min 890 W/m 12,9 km/h (3 Bft) 97,87 %
14.07.2022 14:06 24,7 C 27,2 C 23,3 C 50 % 1019,5 hPa 0,0 l/m 2 min 0 min 898 W/m 19,3 km/h (3 Bft) 100,00 %
14.07.2022 14:08 24,8 C 27,2 C 22,8 C 50 % 1019,5 hPa 0,0 l/m 2 min 0 min 852 W/m 25,7 km/h (4 Bft) 100,00 %
14.07.2022 14:10 24,8 C 26,7 C 22,2 C 50 % 1019,5 hPa 0,0 l/m 2 min 0 min 790 W/m 25,7 km/h (4 Bft) 100,00 %
14.07.2022 14:12 24,8 C 27,2 C 22,2 C 50 % 1019,5 hPa 0,0 l/m 2 min 0 min 828 W/m 12,9 km/h (3 Bft) 100,00 %
14.07.2022 14:14 24,9 C 27,2 C 22,2 C 51 % 1019,5 hPa 0,0 l/m 2 min 0 min 970 W/m 12,9 km/h (3 Bft) 100,00 %
14.07.2022 14:16 25,0 C 27,8 C 22,2 C 49 % 1019,5 hPa 0,0 l/m 2 min 0 min 939 W/m 16,1 km/h (3 Bft) 100,00 %
14.07.2022 14:18 25,1 C 27,8 C 21,7 C 49 % 1019,4 hPa 0,0 l/m 2 min 0 min 914 W/m 22,5 km/h (4 Bft) 100,00 %
14.07.2022 14:20 25,1 C 27,8 C 21,7 C 49 % 1019,5 hPa 0,0 l/m 2 min 0 min 933 W/m 25,7 km/h (4 Bft) 100,00 %
14.07.2022 14:22 25,2 C 27,8 C 21,7 C 49 % 1019,5 hPa 0,0 l/m 2 min 0 min 957 W/m 19,3 km/h (3 Bft) 100,00 %
14.07.2022 14:24 25,2 C 28,3 C 21,1 C 49 % 1019,5 hPa 0,0 l/m 2 min 0 min 959 W/m 19,3 km/h (3 Bft) 100,00 %
14.07.2022 14:26 25,2 C 28,3 C 21,7 C 49 % 1019,5 hPa 0,0 l/m 2 min 0 min 966 W/m 12,9 km/h (3 Bft) 95,74 %
14.07.2022 14:28 25,3 C 28,3 C 21,7 C 50 % 1019,5 hPa 0,0 l/m 2 min 0 min 989 W/m 19,3 km/h (3 Bft) 100,00 %
14.07.2022 14:30 25,2 C 27,8 C 21,7 C 48 % 1019,4 hPa 0,0 l/m 2 min 0 min 983 W/m 12,9 km/h (3 Bft) 100,00 %
14.07.2022 14:32 25,2 C 27,8 C 21,7 C 49 % 1019,4 hPa 0,0 l/m 2 min 0 min 1050 W/m 16,1 km/h (3 Bft) 100,00 %
14.07.2022 14:34 25,2 C 28,3 C 21,7 C 50 % 1019,3 hPa 0,0 l/m 2 min 0 min 1030 W/m 16,1 km/h (3 Bft) 97,87 %
14.07.2022 14:36 25,2 C 27,8 C 21,7 C 49 % 1019,4 hPa 0,0 l/m 2 min 0 min 893 W/m 16,1 km/h (3 Bft) 97,87 %
14.07.2022 14:38 25,2 C 27,2 C 21,7 C 50 % 1019,4 hPa 0,0 l/m 2 min 0 min 771 W/m 12,9 km/h (3 Bft) 100,00 %
14.07.2022 14:40 25,3 C 27,2 C 21,7 C 48 % 1019,4 hPa 0,0 l/m 2 min 0 min 664 W/m 29,0 km/h (5 Bft) 97,87 %
14.07.2022 14:42 25,2 C 26,7 C 21,7 C 48 % 1019,4 hPa 0,0 l/m 2 min 0 min 697 W/m 16,1 km/h (3 Bft) 97,83 %
14.07.2022 14:44 25,2 C 26,7 C 21,7 C 48 % 1019,3 hPa 0,0 l/m 2 min 0 min 681 W/m 25,7 km/h (4 Bft) 97,87 %
14.07.2022 14:46 25,2 C 27,2 C 21,7 C 49 % 1019,4 hPa 0,0 l/m 2 min 0 min 756 W/m 22,5 km/h (4 Bft) 97,87 %
14.07.2022 14:48 25,3 C 27,2 C 21,7 C 49 % 1019,3 hPa 0,0 l/m 2 min 0 min 653 W/m 19,3 km/h (3 Bft) 97,87 %
14.07.2022 14:50 25,3 C 26,7 C 21,7 C 49 % 1019,4 hPa 0,0 l/m 2 min 0 min 684 W/m 16,1 km/h (3 Bft) 97,87 %
14.07.2022 14:52 25,3 C 27,2 C 21,7 C 49 % 1019,4 hPa 0,0 l/m 2 min 0 min 716 W/m 22,5 km/h (4 Bft) 95,65 %
14.07.2022 14:54 25,3 C 27,8 C 21,7 C 49 % 1019,3 hPa 0,0 l/m 2 min 0 min 946 W/m 25,7 km/h (4 Bft) 97,87 %
14.07.2022 14:56 25,4 C 27,8 C 21,7 C 49 % 1019,4 hPa 0,0 l/m 2 min 0 min 800 W/m 22,5 km/h (4 Bft) 97,37 %
14.07.2022 14:58 25,4 C 28,3 C 21,7 C 49 % 1019,4 hPa 0,0 l/m 2 min 0 min 1020 W/m 22,5 km/h (4 Bft) 97,87 %
14.07.2022 15:00 25,4 C 27,8 C 21,7 C 49 % 1019,4 hPa 0,0 l/m 2 min 0 min 950 W/m 19,3 km/h (3 Bft) 97,87 %
14.07.2022 15:02 25,5 C 27,8 C 21,7 C 49 % 1019,3 hPa 0,0 l/m 2 min 0 min 934 W/m 25,7 km/h (4 Bft) 97,96 %
14.07.2022 15:04 25,5 C 27,2 C 21,1 C 49 % 1019,4 hPa 0,0 l/m 2 min 0 min 894 W/m 22,5 km/h (4 Bft) 93,62 %
14.07.2022 15:06 25,4 C 26,7 C 21,1 C 48 % 1019,5 hPa 0,0 l/m 2 min 0 min 563 W/m 22,5 km/h (4 Bft) 95,74 %
14.07.2022 15:08 25,4 C 27,2 C 21,1 C 49 % 1019,4 hPa 0,0 l/m 2 min 0 min 531 W/m 9,7 km/h (2 Bft) 97,87 %
14.07.2022 15:10 25,4 C 27,2 C 21,1 C 49 % 1019,3 hPa 0,0 l/m 2 min 0 min 727 W/m 9,7 km/h (2 Bft) 97,87 %
14.07.2022 15:12 25,3 C 26,7 C 21,1 C 49 % 1019,4 hPa 0,0 l/m 2 min 0 min 872 W/m 12,9 km/h (3 Bft) 97,87 %
14.07.2022 15:14 25,3 C 26,1 C 21,1 C 49 % 1019,4 hPa 0,0 l/m 2 min 0 min 580 W/m 12,9 km/h (3 Bft) 95,65 %
14.07.2022 15:16 25,2 C 25,6 C 21,1 C 49 % 1019,5 hPa 0,0 l/m 0 min 0 min 244 W/m 22,5 km/h (4 Bft) 95,74 %
14.07.2022 15:18 25,2 C 25,0 C 21,1 C 50 % 1019,5 hPa 0,0 l/m 0 min 0 min 242 W/m 16,1 km/h (3 Bft) 93,62 %
14.07.2022 15:20 25,1 C 24,4 C 20,6 C 49 % 1019,5 hPa 0,0 l/m 0 min 0 min 213 W/m 22,5 km/h (4 Bft) 93,62 %
14.07.2022 15:22 24,9 C 24,4 C 20,6 C 50 % 1019,4 hPa 0,0 l/m 0 min 0 min 215 W/m 16,1 km/h (3 Bft) 93,62 %
14.07.2022 15:24 24,8 C 24,4 C 20,6 C 51 % 1019,5 hPa 0,0 l/m 0 min 0 min 212 W/m 25,7 km/h (4 Bft) 93,62 %
14.07.2022 15:26 24,7 C 23,9 C 20,6 C 51 % 1019,5 hPa 0,0 l/m 0 min 0 min 196 W/m 12,9 km/h (3 Bft) 93,48 %
14.07.2022 15:28 24,7 C 23,9 C 20,0 C 51 % 1019,4 hPa 0,0 l/m 0 min 0 min 207 W/m 12,9 km/h (3 Bft) 93,62 %
14.07.2022 15:30 24,6 C 25,0 C 20,6 C 51 % 1019,5 hPa 0,0 l/m 0 min 0 min 239 W/m 9,7 km/h (2 Bft) 91,49 %
14.07.2022 15:32 24,7 C 26,1 C 20,6 C 52 % 1019,4 hPa 0,0 l/m 2 min 0 min 774 W/m 6,4 km/h (2 Bft) 93,62 %
14.07.2022 15:34 24,8 C 27,2 C 20,6 C 52 % 1019,5 hPa 0,0 l/m 2 min 0 min 798 W/m 12,9 km/h (3 Bft) 95,74 %
14.07.2022 15:36 25,1 C 27,8 C 21,1 C 51 % 1019,5 hPa 0,0 l/m 2 min 0 min 731 W/m 16,1 km/h (3 Bft) 95,74 %
14.07.2022 15:38 25,2 C 27,8 C 21,1 C 50 % 1019,4 hPa 0,0 l/m 2 min 0 min 956 W/m 22,5 km/h (4 Bft) 95,65 %
14.07.2022 15:40 25,4 C 28,3 C 21,1 C 50 % 1019,4 hPa 0,0 l/m 2 min 0 min 992 W/m 16,1 km/h (3 Bft) 93,62 %
14.07.2022 15:42 25,6 C 29,4 C 21,7 C 50 % 1019,4 hPa 0,0 l/m 2 min 0 min 990 W/m 16,1 km/h (3 Bft) 95,74 %
14.07.2022 15:44 25,8 C 29,4 C 21,7 C 49 % 1019,4 hPa 0,0 l/m 2 min 0 min 1010 W/m 9,7 km/h (2 Bft) 95,74 %
14.07.2022 15:46 26,0 C 28,3 C 21,7 C 49 % 1019,4 hPa 0,0 l/m 2 min 0 min 594 W/m 16,1 km/h (3 Bft) 95,74 %
14.07.2022 15:48 26,1 C 27,8 C 21,7 C 50 % 1019,4 hPa 0,0 l/m 0 min 0 min 373 W/m 12,9 km/h (3 Bft) 95,74 %
14.07.2022 15:50 26,1 C 27,2 C 21,7 C 50 % 1019,4 hPa 0,0 l/m 0 min 0 min 292 W/m 12,9 km/h (3 Bft) 97,83 %
14.07.2022 15:52 26,0 C 26,7 C 21,7 C 49 % 1019,5 hPa 0,0 l/m 0 min 0 min 277 W/m 22,5 km/h (4 Bft) 97,87 %
14.07.2022 15:54 25,8 C 26,1 C 21,1 C 49 % 1019,5 hPa 0,0 l/m 0 min 0 min 241 W/m 19,3 km/h (3 Bft) 97,87 %
14.07.2022 15:56 25,7 C 25,6 C 21,1 C 49 % 1019,5 hPa 0,0 l/m 0 min 0 min 285 W/m 19,3 km/h (3 Bft) 95,74 %
14.07.2022 15:58 25,5 C 25,6 C 20,6 C 50 % 1019,5 hPa 0,0 l/m 0 min 0 min 325 W/m 12,9 km/h (3 Bft) 95,74 %
14.07.2022 16:00 25,3 C 25,0 C 20,6 C 51 % 1019,6 hPa 0,0 l/m 0 min 0 min 300 W/m 19,3 km/h (3 Bft) 97,87 %
14.07.2022 16:02 25,2 C 25,0 C 20,6 C 51 % 1019,5 hPa 0,0 l/m 0 min 0 min 309 W/m 19,3 km/h (3 Bft) 97,83 %
14.07.2022 16:04 25,1 C 24,4 C 20,6 C 51 % 1019,6 hPa 0,0 l/m 0 min 0 min 260 W/m 16,1 km/h (3 Bft) 100,00 %
14.07.2022 16:06 24,9 C 24,4 C 20,6 C 51 % 1019,6 hPa 0,0 l/m 0 min 0 min 227 W/m 25,7 km/h (4 Bft) 100,00 %
14.07.2022 16:08 24,7 C 24,4 C 20,6 C 51 % 1019,6 hPa 0,0 l/m 0 min 0 min 223 W/m 6,4 km/h (2 Bft) 97,87 %
14.07.2022 16:10 24,6 C 23,9 C 20,6 C 51 % 1019,6 hPa 0,0 l/m 0 min 0 min 197 W/m 9,7 km/h (2 Bft) 100,00 %
14.07.2022 16:12 24,6 C 24,4 C 20,0 C 52 % 1019,6 hPa 0,0 l/m 0 min 0 min 201 W/m 9,7 km/h (2 Bft) 100,00 %
14.07.2022 16:14 24,6 C 24,4 C 20,6 C 53 % 1019,6 hPa 0,0 l/m 0 min 0 min 256 W/m 9,7 km/h (2 Bft) 100,00 %
14.07.2022 16:16 24,5 C 24,4 C 20,6 C 53 % 1019,6 hPa 0,0 l/m 0 min 0 min 307 W/m 16,1 km/h (3 Bft) 97,87 %
14.07.2022 16:18 24,4 C 24,4 C 20,0 C 52 % 1019,6 hPa 0,0 l/m 0 min 0 min 273 W/m 16,1 km/h (3 Bft) 97,87 %
14.07.2022 16:20 24,4 C 24,4 C 20,6 C 52 % 1019,6 hPa 0,0 l/m 0 min 0 min 252 W/m 12,9 km/h (3 Bft) 100,00 %
14.07.2022 16:22 24,4 C 24,4 C 20,0 C 53 % 1019,7 hPa 0,0 l/m 0 min 0 min 271 W/m 9,7 km/h (2 Bft) 100,00 %
14.07.2022 16:24 24,4 C 25,0 C 20,0 C 53 % 1019,7 hPa 0,0 l/m 0 min 0 min 307 W/m 19,3 km/h (3 Bft) 100,00 %
14.07.2022 16:26 24,4 C 25,0 C 20,6 C 53 % 1019,7 hPa 0,0 l/m 0 min 0 min 343 W/m 19,3 km/h (3 Bft) 97,83 %
14.07.2022 16:28 24,4 C 25,0 C 20,6 C 53 % 1019,7 hPa 0,0 l/m 2 min 0 min 392 W/m 19,3 km/h (3 Bft) 100,00 %
14.07.2022 16:30 24,4 C 25,0 C 20,6 C 53 % 1019,7 hPa 0,0 l/m 2 min 0 min 392 W/m 19,3 km/h (3 Bft) 100,00 %
14.07.2022 16:32 24,4 C 26,7 C 20,6 C 53 % 1019,7 hPa 0,0 l/m 2 min 0 min 427 W/m 12,9 km/h (3 Bft) 100,00 %
14.07.2022 16:34 24,5 C 28,3 C 20,6 C 53 % 1019,7 hPa 0,0 l/m 2 min 0 min 843 W/m 19,3 km/h (3 Bft) 100,00 %
14.07.2022 16:36 24,7 C 28,3 C 20,6 C 53 % 1019,6 hPa 0,0 l/m 2 min 0 min 806 W/m 22,5 km/h (4 Bft) 100,00 %
14.07.2022 16:38 24,8 C 29,4 C 20,6 C 53 % 1019,6 hPa 0,0 l/m 2 min 0 min 774 W/m 16,1 km/h (3 Bft) 97,83 %
14.07.2022 16:40 24,9 C 30,0 C 21,1 C 53 % 1019,7 hPa 0,0 l/m 2 min 0 min 756 W/m 22,5 km/h (4 Bft) 100,00 %
14.07.2022 16:42 25,1 C 30,0 C 21,1 C 53 % 1019,7 hPa 0,0 l/m 2 min 0 min 751 W/m 12,9 km/h (3 Bft) 100,00 %
14.07.2022 16:44 25,1 C 30,0 C 21,1 C 52 % 1019,7 hPa 0,0 l/m 2 min 0 min 750 W/m 12,9 km/h (3 Bft) 97,87 %
14.07.2022 16:46 25,2 C 30,0 C 21,1 C 52 % 1019,7 hPa 0,0 l/m 2 min 0 min 771 W/m 9,7 km/h (2 Bft) 100,00 %
14.07.2022 16:48 25,2 C 30,0 C 21,1 C 51 % 1019,7 hPa 0,0 l/m 2 min 0 min 797 W/m 19,3 km/h (3 Bft) 100,00 %
14.07.2022 16:50 25,3 C 30,6 C 21,7 C 52 % 1019,7 hPa 0,0 l/m 2 min 0 min 812 W/m 25,7 km/h (4 Bft) 100,00 %
14.07.2022 16:52 25,4 C 31,1 C 21,7 C 52 % 1019,7 hPa 0,0 l/m 2 min 0 min 811 W/m 12,9 km/h (3 Bft) 100,00 %
14.07.2022 16:54 25,6 C 31,1 C 21,7 C 51 % 1019,6 hPa 0,0 l/m 2 min 0 min 828 W/m 22,5 km/h (4 Bft) 100,00 %
14.07.2022 16:56 25,6 C 30,6 C 22,2 C 51 % 1019,8 hPa 0,0 l/m 2 min 0 min 842 W/m 25,7 km/h (4 Bft) 100,00 %
14.07.2022 16:58 25,7 C 30,6 C 22,2 C 51 % 1019,7 hPa 0,0 l/m 2 min 0 min 838 W/m 19,3 km/h (3 Bft) 100,00 %
14.07.2022 17:00 25,8 C 31,1 C 22,2 C 50 % 1019,8 hPa 0,0 l/m 2 min 0 min 829 W/m 12,9 km/h (3 Bft) 100,00 %
14.07.2022 17:02 25,8 C 32,2 C 22,2 C 50 % 1019,7 hPa 0,0 l/m 2 min 0 min 819 W/m 9,7 km/h (2 Bft) 100,00 %
14.07.2022 17:04 25,9 C 31,1 C 22,2 C 50 % 1019,6 hPa 0,0 l/m 2 min 0 min 799 W/m 19,3 km/h (3 Bft) 100,00 %
14.07.2022 17:06 26,1 C 31,1 C 22,2 C 50 % 1019,7 hPa 0,0 l/m 2 min 0 min 781 W/m 25,7 km/h (4 Bft) 97,87 %
14.07.2022 17:08 26,1 C 30,6 C 22,2 C 50 % 1019,7 hPa 0,0 l/m 2 min 0 min 780 W/m 16,1 km/h (3 Bft) 100,00 %
14.07.2022 17:10 26,1 C 30,0 C 22,2 C 49 % 1019,7 hPa 0,0 l/m 2 min 0 min 788 W/m 22,5 km/h (4 Bft) 100,00 %
14.07.2022 17:12 26,1 C 30,0 C 22,2 C 50 % 1019,7 hPa 0,0 l/m 2 min 0 min 787 W/m 22,5 km/h (4 Bft) 100,00 %
14.07.2022 17:14 26,1 C 30,0 C 22,2 C 49 % 1019,8 hPa 0,0 l/m 2 min 0 min 786 W/m 22,5 km/h (4 Bft) 97,83 %
14.07.2022 17:16 26,1 C 30,0 C 22,2 C 49 % 1019,8 hPa 0,0 l/m 2 min 0 min 718 W/m 25,7 km/h (4 Bft) 97,87 %
14.07.2022 17:18 26,0 C 29,4 C 22,2 C 48 % 1019,8 hPa 0,0 l/m 2 min 0 min 762 W/m 29,0 km/h (5 Bft) 97,87 %
14.07.2022 17:20 26,0 C 30,0 C 22,2 C 49 % 1019,7 hPa 0,0 l/m 2 min 0 min 729 W/m 22,5 km/h (4 Bft) 97,87 %
14.07.2022 17:22 25,9 C 30,0 C 22,2 C 48 % 1019,7 hPa 0,0 l/m 2 min 0 min 717 W/m 22,5 km/h (4 Bft) 95,74 %
14.07.2022 17:24 25,8 C 30,0 C 22,2 C 48 % 1019,7 hPa 0,0 l/m 2 min 0 min 704 W/m 19,3 km/h (3 Bft) 97,87 %
14.07.2022 17:26 25,9 C 30,6 C 22,2 C 49 % 1019,7 hPa 0,0 l/m 2 min 0 min 700 W/m 16,1 km/h (3 Bft) 97,83 %
14.07.2022 17:28 25,9 C 29,4 C 22,2 C 48 % 1019,7 hPa 0,0 l/m 2 min 0 min 700 W/m 12,9 km/h (3 Bft) 97,87 %
14.07.2022 17:30 25,9 C 29,4 C 21,7 C 47 % 1019,7 hPa 0,0 l/m 2 min 0 min 704 W/m 19,3 km/h (3 Bft) 95,74 %
14.07.2022 17:32 25,8 C 27,8 C 21,7 C 47 % 1019,7 hPa 0,0 l/m 2 min 0 min 507 W/m 29,0 km/h (5 Bft) 97,87 %
14.07.2022 17:34 25,8 C 26,7 C 21,7 C 47 % 1019,7 hPa 0,0 l/m 0 min 0 min 234 W/m 19,3 km/h (3 Bft) 93,62 %
14.07.2022 17:36 25,6 C 25,6 C 21,1 C 47 % 1019,7 hPa 0,0 l/m 0 min 0 min 201 W/m 19,3 km/h (3 Bft) 97,87 %
14.07.2022 17:38 25,4 C 25,6 C 21,1 C 48 % 1019,7 hPa 0,0 l/m 0 min 0 min 174 W/m 16,1 km/h (3 Bft) 97,83 %
14.07.2022 17:40 25,3 C 25,0 C 20,6 C 48 % 1019,7 hPa 0,0 l/m 0 min 0 min 162 W/m 9,7 km/h (2 Bft) 95,74 %
14.07.2022 17:42 25,2 C 25,6 C 20,6 C 48 % 1019,6 hPa 0,0 l/m 0 min 0 min 171 W/m 16,1 km/h (3 Bft) 95,74 %
14.07.2022 17:44 25,1 C 27,2 C 21,1 C 48 % 1019,7 hPa 0,0 l/m 2 min 0 min 403 W/m 9,7 km/h (2 Bft) 97,87 %
14.07.2022 17:46 25,1 C 27,8 C 21,1 C 48 % 1019,6 hPa 0,0 l/m 2 min 0 min 627 W/m 22,5 km/h (4 Bft) 100,00 %
14.07.2022 17:48 25,1 C 29,4 C 21,7 C 48 % 1019,6 hPa 0,0 l/m 2 min 0 min 602 W/m 16,1 km/h (3 Bft) 97,83 %
14.07.2022 17:50 25,2 C 29,4 C 21,7 C 47 % 1019,6 hPa 0,0 l/m 2 min 0 min 583 W/m 25,7 km/h (4 Bft) 91,49 %
14.07.2022 17:52 25,2 C 29,4 C 21,7 C 48 % 1019,6 hPa 0,0 l/m 2 min 0 min 576 W/m 19,3 km/h (3 Bft) 93,62 %
14.07.2022 17:54 25,2 C 29,4 C 21,7 C 48 % 1019,5 hPa 0,0 l/m 2 min 0 min 582 W/m 16,1 km/h (3 Bft) 95,74 %
14.07.2022 17:56 25,2 C 28,3 C 21,7 C 48 % 1019,5 hPa 0,0 l/m 2 min 0 min 448 W/m 12,9 km/h (3 Bft) 95,74 %
14.07.2022 17:58 25,2 C 27,2 C 21,7 C 48 % 1019,3 hPa 0,0 l/m 0 min 0 min 255 W/m 22,5 km/h (4 Bft) 97,87 %
14.07.2022 18:00 25,2 C 25,6 C 21,1 C 48 % 1019,6 hPa 0,0 l/m 0 min 0 min 235 W/m 25,7 km/h (4 Bft) 93,48 %
14.07.2022 18:02 25,1 C 25,6 C 21,1 C 48 % 1019,5 hPa 0,0 l/m 2 min 0 min 256 W/m 16,1 km/h (3 Bft) 95,74 %
14.07.2022 18:04 25,1 C 26,7 C 21,1 C 48 % 1019,6 hPa 0,0 l/m 2 min 0 min 274 W/m 12,9 km/h (3 Bft) 95,74 %
14.07.2022 18:08 25,2 C 27,8 C 21,7 C 49 % 1019,5 hPa 0,0 l/m 4 min 0 min 622 W/m 16,1 km/h (3 Bft) 92,22 %
14.07.2022 18:10 25,2 C 27,2 C 21,7 C 49 % 1019,5 hPa 0,0 l/m 2 min 0 min 447 W/m 22,5 km/h (4 Bft) 93,62 %
14.07.2022 18:12 25,2 C 26,7 C 21,1 C 48 % 1019,5 hPa 0,0 l/m 2 min 0 min 261 W/m 16,1 km/h (3 Bft) 93,62 %
14.07.2022 18:14 25,2 C 26,7 C 21,7 C 48 % 1019,5 hPa 0,0 l/m 2 min 0 min 291 W/m 19,3 km/h (3 Bft) 95,74 %
14.07.2022 18:16 25,2 C 26,1 C 21,1 C 48 % 1019,4 hPa 0,0 l/m 2 min 0 min 244 W/m 12,9 km/h (3 Bft) 93,62 %
14.07.2022 18:18 25,2 C 26,1 C 21,1 C 49 % 1019,4 hPa 0,0 l/m 0 min 0 min 206 W/m 6,4 km/h (2 Bft) 95,65 %
14.07.2022 18:20 25,2 C 26,1 C 21,1 C 49 % 1019,5 hPa 0,0 l/m 2 min 0 min 470 W/m 22,5 km/h (4 Bft) 95,74 %
14.07.2022 18:22 25,0 C 25,6 C 20,6 C 48 % 1019,5 hPa 0,0 l/m 0 min 0 min 219 W/m 19,3 km/h (3 Bft) 93,62 %
14.07.2022 18:24 24,9 C 25,0 C 20,6 C 49 % 1019,5 hPa 0,0 l/m 0 min 0 min 154 W/m 16,1 km/h (3 Bft) 95,74 %
14.07.2022 18:26 24,7 C 23,9 C 20,6 C 49 % 1019,4 hPa 0,0 l/m 0 min 0 min 137 W/m 19,3 km/h (3 Bft) 93,62 %
14.07.2022 18:28 24,6 C 23,9 C 20,0 C 50 % 1019,4 hPa 0,0 l/m 0 min 0 min 145 W/m 12,9 km/h (3 Bft) 95,74 %
14.07.2022 18:30 24,4 C 23,9 C 20,0 C 50 % 1019,5 hPa 0,0 l/m 0 min 0 min 153 W/m 22,5 km/h (4 Bft) 95,65 %
14.07.2022 18:32 24,3 C 24,4 C 20,0 C 50 % 1019,5 hPa 0,0 l/m 0 min 0 min 169 W/m 16,1 km/h (3 Bft) 97,87 %
14.07.2022 18:34 24,3 C 25,0 C 20,0 C 51 % 1019,4 hPa 0,0 l/m 0 min 0 min 147 W/m 12,9 km/h (3 Bft) 97,87 %
14.07.2022 18:36 24,2 C 26,7 C 20,6 C 50 % 1019,4 hPa 0,0 l/m 2 min 0 min 220 W/m 16,1 km/h (3 Bft) 97,87 %
14.07.2022 18:38 24,3 C 27,8 C 20,6 C 51 % 1019,4 hPa 0,0 l/m 2 min 0 min 452 W/m 12,9 km/h (3 Bft) 97,87 %
14.07.2022 18:40 24,4 C 28,3 C 20,6 C 50 % 1019,4 hPa 0,0 l/m 2 min 0 min 439 W/m 16,1 km/h (3 Bft) 97,87 %
14.07.2022 18:42 24,4 C 28,3 C 21,1 C 50 % 1019,4 hPa 0,0 l/m 2 min 0 min 401 W/m 12,9 km/h (3 Bft) 95,65 %
14.07.2022 18:44 24,6 C 28,9 C 21,1 C 50 % 1019,4 hPa 0,0 l/m 2 min 0 min 401 W/m 16,1 km/h (3 Bft) 100,00 %
14.07.2022 18:46 24,6 C 28,9 C 21,1 C 50 % 1019,3 hPa 0,0 l/m 2 min 0 min 401 W/m 16,1 km/h (3 Bft) 100,00 %
14.07.2022 18:48 24,7 C 29,4 C 21,1 C 50 % 1019,4 hPa 0,0 l/m 2 min 0 min 391 W/m 12,9 km/h (3 Bft) 100,00 %
14.07.2022 18:50 24,7 C 28,9 C 21,1 C 50 % 1019,3 hPa 0,0 l/m 2 min 0 min 360 W/m 22,5 km/h (4 Bft) 100,00 %
14.07.2022 18:52 24,7 C 29,4 C 21,1 C 50 % 1019,3 hPa 0,0 l/m 2 min 0 min 384 W/m 16,1 km/h (3 Bft) 100,00 %
14.07.2022 18:54 24,7 C 28,9 C 21,1 C 51 % 1019,4 hPa 0,0 l/m 2 min 0 min 376 W/m 16,1 km/h (3 Bft) 100,00 %
14.07.2022 18:56 24,7 C 28,9 C 21,1 C 50 % 1019,4 hPa 0,0 l/m 2 min 0 min 374 W/m 22,5 km/h (4 Bft) 100,00 %
14.07.2022 18:58 24,7 C 28,9 C 21,1 C 50 % 1019,4 hPa 0,0 l/m 2 min 0 min 367 W/m 12,9 km/h (3 Bft) 100,00 %
14.07.2022 19:00 24,7 C 28,9 C 21,1 C 50 % 1019,4 hPa 0,0 l/m 2 min 0 min 362 W/m 22,5 km/h (4 Bft) 100,00 %
14.07.2022 19:02 24,7 C 28,3 C 21,1 C 50 % 1019,4 hPa 0,0 l/m 2 min 0 min 352 W/m 16,1 km/h (3 Bft) 97,96 %
14.07.2022 19:04 24,8 C 28,9 C 21,1 C 50 % 1019,4 hPa 0,0 l/m 2 min 0 min 347 W/m 9,7 km/h (2 Bft) 100,00 %
14.07.2022 19:06 24,8 C 28,3 C 21,1 C 50 % 1019,4 hPa 0,0 l/m 2 min 0 min 343 W/m 25,7 km/h (4 Bft) 100,00 %
14.07.2022 19:08 24,8 C 28,3 C 20,6 C 51 % 1019,4 hPa 0,0 l/m 2 min 0 min 338 W/m 16,1 km/h (3 Bft) 97,87 %
14.07.2022 19:10 24,7 C 28,3 C 20,6 C 50 % 1019,4 hPa 0,0 l/m 2 min 0 min 333 W/m 12,9 km/h (3 Bft) 97,87 %
14.07.2022 19:12 24,7 C 27,8 C 20,6 C 51 % 1019,3 hPa 0,0 l/m 2 min 0 min 327 W/m 12,9 km/h (3 Bft) 100,00 %
14.07.2022 19:14 24,7 C 27,8 C 20,6 C 51 % 1019,4 hPa 0,0 l/m 2 min 0 min 323 W/m 9,7 km/h (2 Bft) 97,87 %
14.07.2022 19:16 24,7 C 27,2 C 20,0 C 50 % 1019,4 hPa 0,0 l/m 2 min 0 min 309 W/m 16,1 km/h (3 Bft) 97,87 %
14.07.2022 19:18 24,7 C 26,7 C 20,0 C 51 % 1019,4 hPa 0,0 l/m 2 min 0 min 304 W/m 22,5 km/h (4 Bft) 95,65 %
14.07.2022 19:20 24,6 C 25,6 C 20,0 C 50 % 1019,4 hPa 0,0 l/m 2 min 0 min 296 W/m 22,5 km/h (4 Bft) 97,87 %
14.07.2022 19:22 24,6 C 25,0 C 20,0 C 50 % 1019,4 hPa 0,0 l/m 2 min 0 min 284 W/m 19,3 km/h (3 Bft) 97,87 %
14.07.2022 19:24 24,6 C 23,9 C 19,4 C 51 % 1019,4 hPa 0,0 l/m 2 min 0 min 176 W/m 19,3 km/h (3 Bft) 95,74 %
14.07.2022 19:26 24,4 C 23,9 C 19,4 C 51 % 1019,4 hPa 0,0 l/m 0 min 0 min 81 W/m 12,9 km/h (3 Bft) 97,87 %
14.07.2022 19:28 24,3 C 23,3 C 19,4 C 51 % 1019,4 hPa 0,0 l/m 0 min 0 min 91 W/m 16,1 km/h (3 Bft) 97,87 %
14.07.2022 19:30 24,1 C 23,3 C 18,9 C 52 % 1019,5 hPa 0,0 l/m 0 min 0 min 88 W/m 19,3 km/h (3 Bft) 97,83 %
14.07.2022 19:32 23,9 C 23,3 C 18,9 C 52 % 1019,5 hPa 0,0 l/m 0 min 0 min 74 W/m 29,0 km/h (5 Bft) 97,87 %
14.07.2022 19:34 23,8 C 22,8 C 18,9 C 52 % 1019,5 hPa 0,0 l/m 0 min 0 min 69 W/m 19,3 km/h (3 Bft) 97,87 %
14.07.2022 19:36 23,6 C 22,8 C 18,9 C 53 % 1019,5 hPa 0,0 l/m 0 min 0 min 63 W/m 9,7 km/h (2 Bft) 97,87 %
14.07.2022 19:38 23,5 C 22,8 C 18,9 C 53 % 1019,6 hPa 0,0 l/m 0 min 0 min 65 W/m 32,2 km/h (5 Bft) 97,87 %
14.07.2022 19:40 23,4 C 22,2 C 18,9 C 53 % 1019,5 hPa 0,0 l/m 0 min 0 min 72 W/m 16,1 km/h (3 Bft) 97,87 %
14.07.2022 19:42 23,3 C 22,2 C 18,9 C 53 % 1019,5 hPa 0,0 l/m 0 min 0 min 74 W/m 12,9 km/h (3 Bft) 97,83 %
14.07.2022 19:44 23,2 C 22,2 C 18,9 C 54 % 1019,5 hPa 0,0 l/m 0 min 0 min 69 W/m 9,7 km/h (2 Bft) 97,87 %
14.07.2022 19:46 23,1 C 22,2 C 18,9 C 54 % 1019,6 hPa 0,0 l/m 0 min 0 min 62 W/m 16,1 km/h (3 Bft) 97,87 %
14.07.2022 19:48 23,1 C 22,2 C 18,9 C 54 % 1019,5 hPa 0,0 l/m 0 min 0 min 55 W/m 16,1 km/h (3 Bft) 97,87 %
14.07.2022 19:50 23,0 C 22,2 C 18,9 C 55 % 1019,6 hPa 0,0 l/m 0 min 0 min 49 W/m 12,9 km/h (3 Bft) 100,00 %
14.07.2022 19:52 23,0 C 22,2 C 18,9 C 55 % 1019,6 hPa 0,0 l/m 0 min 0 min 66 W/m 16,1 km/h (3 Bft) 100,00 %
14.07.2022 19:54 22,9 C 22,2 C 18,9 C 55 % 1019,5 hPa 0,0 l/m 0 min 0 min 56 W/m 9,7 km/h (2 Bft) 100,00 %
14.07.2022 19:56 22,9 C 22,2 C 18,9 C 55 % 1019,6 hPa 0,0 l/m 0 min 0 min 58 W/m 19,3 km/h (3 Bft) 100,00 %
14.07.2022 19:58 22,9 C 22,2 C 18,9 C 55 % 1019,6 hPa 0,0 l/m 0 min 0 min 64 W/m 12,9 km/h (3 Bft) 100,00 %
14.07.2022 20:00 22,8 C 22,2 C 18,9 C 55 % 1019,7 hPa 0,0 l/m 0 min 0 min 67 W/m 19,3 km/h (3 Bft) 100,00 %
14.07.2022 20:02 22,8 C 22,2 C 18,9 C 55 % 1019,7 hPa 0,0 l/m 0 min 0 min 86 W/m 16,1 km/h (3 Bft) 100,00 %
14.07.2022 20:04 22,8 C 22,2 C 18,9 C 55 % 1019,7 hPa 0,0 l/m 2 min 0 min 109 W/m 9,7 km/h (2 Bft) 97,87 %
14.07.2022 20:06 22,8 C 22,2 C 18,9 C 56 % 1019,7 hPa 0,0 l/m 2 min 0 min 112 W/m 12,9 km/h (3 Bft) 97,83 %
14.07.2022 20:08 22,8 C 22,2 C 18,9 C 56 % 1019,7 hPa 0,0 l/m 0 min 0 min 86 W/m 25,7 km/h (4 Bft) 100,00 %
14.07.2022 20:10 22,8 C 22,2 C 18,3 C 56 % 1019,8 hPa 0,0 l/m 0 min 0 min 68 W/m 12,9 km/h (3 Bft) 100,00 %
14.07.2022 20:12 22,7 C 22,2 C 18,3 C 56 % 1019,8 hPa 0,0 l/m 0 min 0 min 56 W/m 16,1 km/h (3 Bft) 100,00 %
14.07.2022 20:14 22,7 C 21,7 C 18,3 C 56 % 1019,8 hPa 0,0 l/m 0 min 0 min 50 W/m 16,1 km/h (3 Bft) 100,00 %
14.07.2022 20:16 22,6 C 21,7 C 18,3 C 56 % 1019,8 hPa 0,0 l/m 0 min 0 min 54 W/m 16,1 km/h (3 Bft) 100,00 %
14.07.2022 20:18 22,5 C 21,7 C 18,3 C 57 % 1019,8 hPa 0,0 l/m 0 min 0 min 68 W/m 19,3 km/h (3 Bft) 100,00 %
14.07.2022 20:20 22,4 C 21,7 C 18,3 C 57 % 1019,8 hPa 0,0 l/m 0 min 0 min 70 W/m 19,3 km/h (3 Bft) 97,87 %
14.07.2022 20:22 22,4 C 21,7 C 17,8 C 57 % 1019,8 hPa 0,0 l/m 0 min 0 min 75 W/m 19,3 km/h (3 Bft) 100,00 %
14.07.2022 20:24 22,3 C 21,7 C 17,8 C 58 % 1019,8 hPa 0,0 l/m 0 min 0 min 72 W/m 16,1 km/h (3 Bft) 100,00 %
14.07.2022 20:26 22,3 C 21,7 C 17,8 C 58 % 1019,8 hPa 0,0 l/m 0 min 0 min 62 W/m 16,1 km/h (3 Bft) 95,74 %
14.07.2022 20:28 22,2 C 21,1 C 17,8 C 58 % 1019,9 hPa 0,0 l/m 0 min 0 min 57 W/m 22,5 km/h (4 Bft) 97,83 %
14.07.2022 20:30 22,2 C 21,7 C 17,8 C 59 % 1019,9 hPa 0,0 l/m 0 min 0 min 58 W/m 12,9 km/h (3 Bft) 97,87 %
14.07.2022 20:32 22,1 C 21,1 C 17,8 C 59 % 1019,9 hPa 0,0 l/m 0 min 0 min 56 W/m 16,1 km/h (3 Bft) 97,92 %
14.07.2022 20:34 22,1 C 21,1 C 17,8 C 59 % 1020,0 hPa 0,0 l/m 0 min 0 min 54 W/m 22,5 km/h (4 Bft) 97,87 %
14.07.2022 20:36 22,1 C 21,1 C 17,8 C 59 % 1020,0 hPa 0,0 l/m 0 min 0 min 49 W/m 9,7 km/h (2 Bft) 97,87 %
14.07.2022 20:38 22,0 C 21,1 C 17,8 C 59 % 1020,0 hPa 0,0 l/m 0 min 0 min 46 W/m 16,1 km/h (3 Bft) 97,87 %
14.07.2022 20:40 22,0 C 21,1 C 17,8 C 59 % 1020,0 hPa 0,0 l/m 0 min 0 min 43 W/m 3,2 km/h (1 Bft) 97,87 %
14.07.2022 20:42 21,9 C 21,1 C 17,8 C 59 % 1020,0 hPa 0,0 l/m 0 min 0 min 40 W/m 9,7 km/h (2 Bft) 93,48 %
14.07.2022 20:44 21,9 C 21,1 C 17,8 C 59 % 1020,0 hPa 0,0 l/m 0 min 0 min 40 W/m 22,5 km/h (4 Bft) 93,62 %
14.07.2022 20:46 21,9 C 21,1 C 17,8 C 59 % 1020,0 hPa 0,0 l/m 0 min 0 min 39 W/m 12,9 km/h (3 Bft) 95,74 %
14.07.2022 20:48 21,8 C 21,1 C 17,8 C 60 % 1020,0 hPa 0,0 l/m 0 min 0 min 39 W/m 9,7 km/h (2 Bft) 97,87 %
14.07.2022 20:50 21,8 C 21,1 C 17,8 C 60 % 1020,0 hPa 0,0 l/m 0 min 0 min 34 W/m 16,1 km/h (3 Bft) 97,87 %
14.07.2022 20:52 21,8 C 20,6 C 17,2 C 60 % 1020,1 hPa 0,0 l/m 0 min 0 min 32 W/m 12,9 km/h (3 Bft) 97,83 %
14.07.2022 20:54 21,7 C 20,6 C 17,2 C 60 % 1020,1 hPa 0,0 l/m 0 min 0 min 29 W/m 19,3 km/h (3 Bft) 95,74 %
14.07.2022 20:56 21,7 C 20,6 C 17,2 C 60 % 1020,1 hPa 0,0 l/m 0 min 0 min 26 W/m 22,5 km/h (4 Bft) 97,87 %
14.07.2022 20:58 21,6 C 20,6 C 17,2 C 60 % 1020,2 hPa 0,0 l/m 0 min 0 min 25 W/m 22,5 km/h (4 Bft) 97,87 %
14.07.2022 21:00 21,6 C 20,6 C 17,2 C 61 % 1020,2 hPa 0,0 l/m 0 min 0 min 23 W/m 19,3 km/h (3 Bft) 93,62 %
14.07.2022 21:02 21,5 C 20,6 C 17,2 C 61 % 1020,2 hPa 0,0 l/m 0 min 0 min 21 W/m 12,9 km/h (3 Bft) 93,62 %
14.07.2022 21:04 21,4 C 20,0 C 17,2 C 61 % 1020,3 hPa 0,0 l/m 0 min 0 min 19 W/m 19,3 km/h (3 Bft) 95,74 %
14.07.2022 21:06 21,3 C 20,0 C 16,7 C 61 % 1020,3 hPa 0,0 l/m 0 min 0 min 19 W/m 25,7 km/h (4 Bft) 91,49 %
14.07.2022 21:08 21,3 C 20,0 C 16,7 C 61 % 1020,3 hPa 0,0 l/m 0 min 0 min 21 W/m 12,9 km/h (3 Bft) 95,74 %
14.07.2022 21:10 21,2 C 20,0 C 16,7 C 62 % 1020,3 hPa 0,0 l/m 0 min 0 min 21 W/m 16,1 km/h (3 Bft) 97,87 %
14.07.2022 21:12 21,2 C 20,0 C 16,7 C 61 % 1020,3 hPa 0,0 l/m 0 min 0 min 20 W/m 22,5 km/h (4 Bft) 95,65 %
14.07.2022 21:14 21,1 C 20,0 C 16,7 C 62 % 1020,3 hPa 0,0 l/m 0 min 0 min 19 W/m 6,4 km/h (2 Bft) 93,62 %
14.07.2022 21:16 21,1 C 20,0 C 16,7 C 62 % 1020,4 hPa 0,0 l/m 0 min 0 min 17 W/m 9,7 km/h (2 Bft) 93,62 %
14.07.2022 21:18 21,0 C 20,0 C 16,7 C 62 % 1020,4 hPa 0,0 l/m 0 min 0 min 16 W/m 12,9 km/h (3 Bft) 95,74 %
14.07.2022 21:20 21,0 C 20,0 C 16,7 C 62 % 1020,4 hPa 0,0 l/m 0 min 0 min 15 W/m 9,7 km/h (2 Bft) 95,74 %
14.07.2022 21:22 20,9 C 20,0 C 16,7 C 62 % 1020,4 hPa 0,0 l/m 0 min 0 min 14 W/m 3,2 km/h (1 Bft) 93,62 %
14.07.2022 21:24 20,9 C 20,0 C 16,7 C 62 % 1020,4 hPa 0,0 l/m 0 min 0 min 14 W/m 9,7 km/h (2 Bft) 95,65 %
14.07.2022 21:26 20,9 C 20,0 C 16,7 C 62 % 1020,4 hPa 0,0 l/m 0 min 0 min 12 W/m 3,2 km/h (1 Bft) 95,74 %
14.07.2022 21:28 20,8 C 19,4 C 16,7 C 63 % 1020,4 hPa 0,0 l/m 0 min 0 min 12 W/m 6,4 km/h (2 Bft) 95,74 %
14.07.2022 21:30 20,8 C 19,4 C 16,7 C 63 % 1020,4 hPa 0,0 l/m 0 min 0 min 11 W/m 9,7 km/h (2 Bft) 95,74 %
14.07.2022 21:32 20,8 C 19,4 C 16,7 C 63 % 1020,4 hPa 0,0 l/m 0 min 0 min 11 W/m 3,2 km/h (1 Bft) 95,74 %
14.07.2022 21:34 20,8 C 19,4 C 16,1 C 63 % 1020,5 hPa 0,0 l/m 0 min 0 min 11 W/m 6,4 km/h (2 Bft) 95,74 %
14.07.2022 21:36 20,7 C 19,4 C 16,1 C 63 % 1020,4 hPa 0,0 l/m 0 min 0 min 9 W/m 6,4 km/h (2 Bft) 95,65 %
14.07.2022 21:38 20,7 C 19,4 C 16,1 C 63 % 1020,5 hPa 0,0 l/m 0 min 0 min 7 W/m 9,7 km/h (2 Bft) 93,62 %
14.07.2022 21:40 20,6 C 19,4 C 16,1 C 63 % 1020,5 hPa 0,0 l/m 0 min 0 min 5 W/m 3,2 km/h (1 Bft) 95,74 %
14.07.2022 21:42 20,6 C 19,4 C 16,1 C 63 % 1020,6 hPa 0,0 l/m 0 min 0 min 5 W/m 12,9 km/h (3 Bft) 95,74 %
14.07.2022 21:44 20,5 C 19,4 C 16,1 C 63 % 1020,6 hPa 0,0 l/m 0 min 0 min 2 W/m 12,9 km/h (3 Bft) 97,87 %
14.07.2022 21:46 20,4 C 18,9 C 16,1 C 63 % 1020,6 hPa 0,0 l/m 0 min 0 min 0 W/m 12,9 km/h (3 Bft) 97,87 %
14.07.2022 21:48 20,3 C 18,9 C 16,1 C 64 % 1020,6 hPa 0,0 l/m 0 min 0 min 0 W/m 9,7 km/h (2 Bft) 97,83 %
14.07.2022 21:50 20,3 C 18,9 C 15,6 C 64 % 1020,7 hPa 0,0 l/m 0 min 0 min 0 W/m 9,7 km/h (2 Bft) 100,00 %
14.07.2022 21:52 20,2 C 18,9 C 15,6 C 64 % 1020,7 hPa 0,0 l/m 0 min 0 min 0 W/m 9,7 km/h (2 Bft) 100,00 %
14.07.2022 21:54 20,2 C 18,9 C 15,6 C 64 % 1020,7 hPa 0,0 l/m 0 min 0 min 0 W/m 6,4 km/h (2 Bft) 100,00 %
14.07.2022 21:56 20,1 C 18,9 C 15,6 C 64 % 1020,7 hPa 0,0 l/m 0 min 0 min 0 W/m 6,4 km/h (2 Bft) 97,87 %
14.07.2022 21:58 20,1 C 18,9 C 15,6 C 64 % 1020,8 hPa 0,0 l/m 0 min 0 min 0 W/m 6,4 km/h (2 Bft) 100,00 %
14.07.2022 22:00 20,0 C 18,9 C 15,6 C 65 % 1020,8 hPa 0,0 l/m 0 min 0 min 0 W/m 3,2 km/h (1 Bft) 100,00 %
14.07.2022 22:02 19,9 C 18,9 C 15,6 C 65 % 1020,7 hPa 0,0 l/m 0 min 0 min 0 W/m 3,2 km/h (1 Bft) 100,00 %
14.07.2022 22:04 19,9 C 18,9 C 15,6 C 65 % 1020,8 hPa 0,0 l/m 0 min 0 min 0 W/m 6,4 km/h (2 Bft) 100,00 %
14.07.2022 22:06 19,8 C 18,9 C 15,6 C 65 % 1020,8 hPa 0,0 l/m 0 min 0 min 0 W/m 3,2 km/h (1 Bft) 100,00 %
14.07.2022 22:08 19,8 C 18,9 C 15,6 C 65 % 1020,9 hPa 0,0 l/m 0 min 0 min 0 W/m 6,4 km/h (2 Bft) 100,00 %
14.07.2022 22:10 19,8 C 18,3 C 15,6 C 65 % 1020,9 hPa 0,0 l/m 0 min 0 min 0 W/m 3,2 km/h (1 Bft) 100,00 %
14.07.2022 22:12 19,7 C 18,9 C 15,6 C 65 % 1020,9 hPa 0,0 l/m 0 min 0 min 0 W/m 6,4 km/h (2 Bft) 100,00 %
14.07.2022 22:14 19,7 C 18,3 C 15,0 C 65 % 1020,9 hPa 0,0 l/m 0 min 0 min 0 W/m 3,2 km/h (1 Bft) 100,00 %
14.07.2022 22:16 19,6 C 18,3 C 15,0 C 65 % 1021,0 hPa 0,0 l/m 0 min 0 min 0 W/m 3,2 km/h (1 Bft) 97,87 %
14.07.2022 22:18 19,6 C 18,3 C 15,0 C 66 % 1021,0 hPa 0,0 l/m 0 min 0 min 0 W/m 6,4 km/h (2 Bft) 100,00 %
14.07.2022 22:20 19,6 C 18,3 C 15,0 C 66 % 1021,0 hPa 0,0 l/m 0 min 0 min 0 W/m 6,4 km/h (2 Bft) 97,87 %
14.07.2022 22:22 19,5 C 18,3 C 15,0 C 66 % 1021,0 hPa 0,0 l/m 0 min 0 min 0 W/m 6,4 km/h (2 Bft) 100,00 %
14.07.2022 22:24 19,4 C 18,3 C 15,0 C 65 % 1021,0 hPa 0,0 l/m 0 min 0 min 0 W/m 6,4 km/h (2 Bft) 100,00 %
14.07.2022 22:26 19,4 C 18,3 C 15,0 C 65 % 1021,0 hPa 0,0 l/m 0 min 0 min 0 W/m 3,2 km/h (1 Bft) 100,00 %
14.07.2022 22:28 19,3 C 18,3 C 15,0 C 66 % 1021,0 hPa 0,0 l/m 0 min 0 min 0 W/m 0,0 km/h (0 Bft) 100,00 %
14.07.2022 22:30 19,3 C 18,3 C 15,0 C 66 % 1021,1 hPa 0,0 l/m 0 min 0 min 0 W/m 3,2 km/h (1 Bft) 100,00 %
14.07.2022 22:32 19,3 C 18,3 C 15,0 C 66 % 1021,1 hPa 0,0 l/m 0 min 0 min 0 W/m 9,7 km/h (2 Bft) 100,00 %
14.07.2022 22:34 19,2 C 17,8 C 15,0 C 66 % 1021,1 hPa 0,0 l/m 0 min 0 min 0 W/m 3,2 km/h (1 Bft) 100,00 %
14.07.2022 22:36 19,2 C 17,8 C 15,0 C 66 % 1021,1 hPa 0,0 l/m 0 min 0 min 0 W/m 3,2 km/h (1 Bft) 100,00 %
14.07.2022 22:38 19,2 C 17,8 C 15,0 C 66 % 1021,1 hPa 0,0 l/m 0 min 0 min 0 W/m 6,4 km/h (2 Bft) 100,00 %
14.07.2022 22:40 19,1 C 17,8 C 14,4 C 66 % 1021,1 hPa 0,0 l/m 0 min 0 min 0 W/m 6,4 km/h (2 Bft) 100,00 %
14.07.2022 22:42 19,1 C 17,8 C 14,4 C 67 % 1021,2 hPa 0,0 l/m 0 min 0 min 0 W/m 3,2 km/h (1 Bft) 97,87 %
14.07.2022 22:44 19,0 C 17,8 C 14,4 C 66 % 1021,1 hPa 0,0 l/m 0 min 0 min 0 W/m 6,4 km/h (2 Bft) 97,87 %
14.07.2022 22:46 19,0 C 17,8 C 14,4 C 67 % 1021,2 hPa 0,0 l/m 0 min 0 min 0 W/m 3,2 km/h (1 Bft) 100,00 %
14.07.2022 22:48 18,9 C 17,8 C 14,4 C 67 % 1021,2 hPa 0,0 l/m 0 min 0 min 0 W/m 3,2 km/h (1 Bft) 100,00 %
14.07.2022 22:50 18,9 C 17,8 C 14,4 C 67 % 1021,2 hPa 0,0 l/m 0 min 0 min 0 W/m 6,4 km/h (2 Bft) 97,67 %
14.07.2022 22:52 18,8 C 17,8 C 14,4 C 67 % 1021,2 hPa 0,0 l/m 0 min 0 min 0 W/m 3,2 km/h (1 Bft) 100,00 %
14.07.2022 22:54 18,8 C 17,8 C 14,4 C 67 % 1021,2 hPa 0,0 l/m 0 min 0 min 0 W/m 6,4 km/h (2 Bft) 97,87 %
14.07.2022 22:56 18,8 C 17,8 C 14,4 C 67 % 1021,2 hPa 0,0 l/m 0 min 0 min 0 W/m 6,4 km/h (2 Bft) 98,00 %
14.07.2022 22:58 18,7 C 17,2 C 14,4 C 67 % 1021,3 hPa 0,0 l/m 0 min 0 min 0 W/m 3,2 km/h (1 Bft) 100,00 %
14.07.2022 23:00 18,7 C 17,2 C 14,4 C 67 % 1021,3 hPa 0,0 l/m 0 min 0 min 0 W/m 6,4 km/h (2 Bft) 100,00 %
14.07.2022 23:02 18,6 C 17,2 C 14,4 C 68 % 1021,3 hPa 0,0 l/m 0 min 0 min 0 W/m 3,2 km/h (1 Bft) 95,74 %
14.07.2022 23:04 18,6 C 17,2 C 14,4 C 68 % 1021,3 hPa 0,0 l/m 0 min 0 min 0 W/m 3,2 km/h (1 Bft) 97,87 %
14.07.2022 23:06 18,6 C 17,2 C 14,4 C 68 % 1021,3 hPa 0,0 l/m 0 min 0 min 0 W/m 3,2 km/h (1 Bft) 97,87 %
14.07.2022 23:08 18,6 C 17,2 C 13,9 C 68 % 1021,3 hPa 0,0 l/m 0 min 0 min 0 W/m 3,2 km/h (1 Bft) 97,87 %
14.07.2022 23:10 18,5 C 17,2 C 13,9 C 68 % 1021,3 hPa 0,0 l/m 0 min 0 min 0 W/m 3,2 km/h (1 Bft) 97,83 %
14.07.2022 23:12 18,4 C 17,2 C 13,9 C 68 % 1021,3 hPa 0,0 l/m 0 min 0 min 0 W/m 3,2 km/h (1 Bft) 97,87 %
14.07.2022 23:14 18,4 C 17,2 C 13,9 C 68 % 1021,3 hPa 0,0 l/m 0 min 0 min 0 W/m 6,4 km/h (2 Bft) 97,87 %
14.07.2022 23:16 18,3 C 17,2 C 13,9 C 68 % 1021,3 hPa 0,0 l/m 0 min 0 min 0 W/m 6,4 km/h (2 Bft) 97,87 %
14.07.2022 23:18 18,3 C 17,2 C 13,9 C 68 % 1021,3 hPa 0,0 l/m 0 min 0 min 0 W/m 9,7 km/h (2 Bft) 93,62 %
14.07.2022 23:20 18,2 C 17,2 C 13,9 C 69 % 1021,3 hPa 0,0 l/m 0 min 0 min 0 W/m 6,4 km/h (2 Bft) 95,74 %
14.07.2022 23:22 18,2 C 17,2 C 13,9 C 69 % 1021,3 hPa 0,0 l/m 0 min 0 min 0 W/m 3,2 km/h (1 Bft) 95,65 %
14.07.2022 23:24 18,2 C 17,2 C 13,9 C 69 % 1021,4 hPa 0,0 l/m 0 min 0 min 0 W/m 3,2 km/h (1 Bft) 95,74 %
14.07.2022 23:26 18,1 C 17,2 C 13,9 C 69 % 1021,4 hPa 0,0 l/m 0 min 0 min 0 W/m 6,4 km/h (2 Bft) 95,74 %
14.07.2022 23:28 18,1 C 17,2 C 13,9 C 69 % 1021,4 hPa 0,0 l/m 0 min 0 min 0 W/m 6,4 km/h (2 Bft) 95,74 %
14.07.2022 23:30 18,1 C 17,2 C 13,9 C 69 % 1021,4 hPa 0,0 l/m 0 min 0 min 0 W/m 9,7 km/h (2 Bft) 91,49 %
14.07.2022 23:32 18,1 C 16,7 C 13,9 C 69 % 1021,4 hPa 0,0 l/m 0 min 0 min 0 W/m 12,9 km/h (3 Bft) 97,87 %
14.07.2022 23:34 18,0 C 16,7 C 13,9 C 70 % 1021,4 hPa 0,0 l/m 0 min 0 min 0 W/m 9,7 km/h (2 Bft) 97,83 %
14.07.2022 23:36 18,0 C 16,7 C 13,9 C 70 % 1021,5 hPa 0,0 l/m 0 min 0 min 0 W/m 12,9 km/h (3 Bft) 93,62 %
14.07.2022 23:38 17,9 C 16,7 C 13,9 C 70 % 1021,5 hPa 0,0 l/m 0 min 0 min 0 W/m 6,4 km/h (2 Bft) 97,87 %
14.07.2022 23:40 17,9 C 16,7 C 13,3 C 70 % 1021,5 hPa 0,0 l/m 0 min 0 min 0 W/m 6,4 km/h (2 Bft) 95,74 %
14.07.2022 23:42 17,8 C 16,7 C 13,3 C 71 % 1021,5 hPa 0,0 l/m 0 min 0 min 0 W/m 9,7 km/h (2 Bft) 97,87 %
14.07.2022 23:44 17,8 C 16,7 C 13,3 C 71 % 1021,5 hPa 0,0 l/m 0 min 0 min 0 W/m 6,4 km/h (2 Bft) 97,87 %
14.07.2022 23:46 17,8 C 16,7 C 13,3 C 71 % 1021,5 hPa 0,0 l/m 0 min 0 min 0 W/m 9,7 km/h (2 Bft) 97,83 %
14.07.2022 23:48 17,7 C 16,7 C 13,3 C 72 % 1021,5 hPa 0,0 l/m 0 min 0 min 0 W/m 6,4 km/h (2 Bft) 95,74 %
14.07.2022 23:50 17,7 C 16,1 C 13,3 C 72 % 1021,5 hPa 0,0 l/m 0 min 0 min 0 W/m 9,7 km/h (2 Bft) 95,74 %
14.07.2022 23:52 17,7 C 16,7 C 13,3 C 72 % 1021,5 hPa 0,0 l/m 0 min 0 min 0 W/m 6,4 km/h (2 Bft) 93,62 %
14.07.2022 23:54 17,6 C 16,1 C 13,3 C 73 % 1021,5 hPa 0,0 l/m 0 min 0 min 0 W/m 6,4 km/h (2 Bft) 93,62 %
14.07.2022 23:56 17,6 C 16,7 C 13,3 C 73 % 1021,4 hPa 0,0 l/m 0 min 0 min 0 W/m 6,4 km/h (2 Bft) 93,62 %
14.07.2022 23:58 17,5 C 16,1 C 13,3 C 73 % 1021,5 hPa 0,0 l/m 0 min 0 min 0 W/m 3,2 km/h (1 Bft) 95,65 %
_ Min-Zeit 07:02 04:50 06:07 17:30 14:34 - - - - 03:02 01:56
Minimum _ 16,2 C 15,6 C 12,2 C 47 % 1019,3 hPa - - - - 0,0 km/h (0 Bft) 89,13 %
_ Max-Zeit 15:48 17:02 12:48 05:26 23:36 00:00 18:08 00:00 14:32 19:38 00:20
Maximum _ 26,1 C 32,2 C 28,3 C 90 % 1021,5 hPa 0,0 l/m 4 min 0 min 1050 W/m 32,2 km/h
NW (5 Bft)
100,00 %
Durchschnitt _ 20,7 C 21,3 C 17,3 C 69 % 1020,2 hPa #0,0 l/m #8:52 h #0 min. 413 W/m 11,4 km/h (2 Bft) 97,65 %
© 2022 W. Hausmann